KC5DAQ-2 Weather Reports


time (UTC)temp
F
wind
direction
speed
knots
gust
knots
rain 1hr
in
rain 24hr
in
rain mn
in
humidity
%
barometer
mb
20260505224543 83 343 0.0 2.6 0.00 0.00 0.00 85 998.6
20260505224438 83 175 0.0 2.6 0.00 0.00 0.00 85 998.6
20260505224338 83 175 0.0 2.6 0.00 0.00 0.00 85 998.6
20260505224238 83 172 0.0 2.6 0.00 0.00 0.00 85 998.6
20260505224138 83 192 0.0 1.7 0.00 0.00 0.00 85 998.6
20260505224037 83 195 0.0 1.7 0.00 0.00 0.00 85 998.5
20260505223939 83 245 0.0 1.7 0.00 0.00 0.00 85 998.5
20260505223838 83 245 0.0 1.7 0.00 0.00 0.00 85 998.6
20260505223737 83 206 0.9 1.7 0.00 0.00 0.00 85 998.5
20260505223637 83 327 0.0 1.7 0.00 0.00 0.00 85 998.5
20260505223537 83 238 0.0 1.7 0.00 0.00 0.00 84 998.6
20260505223436 83 248 0.0 1.7 0.00 0.00 0.00 84 998.6
20260505223337 83 248 0.0 1.7 0.00 0.00 0.00 84 998.6
20260505223237 83 237 0.0 1.7 0.00 0.00 0.00 84 998.6
20260505223138 83 237 0.0 1.7 0.00 0.00 0.00 84 998.5
20260505223039 83 264 0.0 2.6 0.00 0.00 0.00 84 998.5
20260505222932 83 264 0.0 2.6 0.00 0.00 0.00 84 998.6
20260505222831 83 292 0.0 2.6 0.00 0.00 0.00 84 998.5
20260505222733 83 292 0.0 2.6 0.00 0.00 0.00 84 998.6
20260505222633 83 217 0.0 2.6 0.00 0.00 0.00 84 998.6
20260505222527 83 179 0.0 3.5 0.00 0.00 0.00 84 998.4
20260505222427 83 252 0.0 3.5 0.00 0.00 0.00 84 998.5
20260505222318 84 113 0.9 3.5 0.00 0.00 0.00 84 998.5
20260505222218 84 189 0.9 3.5 0.00 0.00 0.00 84 998.6
20260505222105 84 133 0.0 3.5 0.00 0.00 0.00 84 998.7
20260505222005 84 351 0.0 3.5 0.00 0.00 0.00 84 998.6
20260505221903 84 223 0.0 3.5 0.00 0.00 0.00 84 998.6
20260505221802 84 186 0.0 3.5 0.00 0.00 0.00 84 998.7
20260505221702 84 185 0.0 3.5 0.00 0.00 0.00 84 998.6
20260505221604 84 276 0.0 0.9 0.00 0.00 0.00 84 998.7
20260505221501 84 286 0.0 0.9 0.00 0.00 0.00 84 998.7
20260505221358 84 245 0.0 0.9 0.00 0.00 0.00 84 998.7
20260505221253 84 221 0.0 0.9 0.00 0.00 0.00 85 998.7
20260505221158 84 223 0.0 0.9 0.00 0.00 0.00 85 998.7
20260505221044 84 233 0.0 0.9 0.00 0.00 0.00 84 998.8
20260505220942 84 233 0.0 0.9 0.00 0.00 0.00 84 998.7
20260505220840 84 224 0.0 1.7 0.00 0.00 0.00 84 998.7
20260505220738 84 217 0.0 1.7 0.00 0.00 0.00 84 998.6
20260505220640 84 220 0.0 1.7 0.00 0.00 0.00 84 998.7
20260505220537 84 237 0.0 1.7 0.00 0.00 0.00 84 998.7
20260505220436 84 237 0.0 1.7 0.00 0.00 0.00 84 998.7
20260505220338 84 235 0.0 1.7 0.00 0.00 0.00 84 998.7
20260505220237 84 235 0.0 1.7 0.00 0.00 0.00 84 998.7
20260505220136 84 237 0.0 1.7 0.00 0.00 0.00 84 998.6
20260505220036 84 235 0.0 1.7 0.00 0.00 0.00 84 998.7
20260505215935 84 224 0.0 4.3 0.00 0.00 0.00 84 998.8
20260505215837 84 190 0.9 4.3 0.00 0.00 0.00 84 998.8
20260505215736 84 188 0.9 4.3 0.00 0.00 0.00 84 998.8
20260505215637 84 209 0.0 4.3 0.00 0.00 0.00 84 998.8
20260505215535 84 188 0.0 4.3 0.00 0.00 0.00 84 998.7
20260505215436 84 285 0.9 4.3 0.00 0.00 0.00 85 998.8
20260505215336 84 240 0.9 4.3 0.00 0.00 0.00 85 998.8
20260505215233 84 151 0.9 4.3 0.00 0.00 0.00 85 998.8
20260505215133 84 203 0.9 4.3 0.00 0.00 0.00 85 998.8
20260505215023 84 135 0.9 4.3 0.00 0.00 0.00 85 998.8
20260505214916 84 97 0.9 2.6 0.00 0.00 0.00 85 998.8
20260505214805 84 166 0.0 2.6 0.00 0.00 0.00 85 998.9
20260505214703 84 214 0.0 0.9 0.00 0.00 0.00 85 998.9
20260505214615 84 214 0.0 3.5 0.00 0.00 0.00 85 998.9
20260505214505 84 214 0.0 3.5 0.00 0.00 0.00 85 998.9
20260505214403 84 216 0.0 3.5 0.00 0.00 0.00 85 999.0
20260505214302 84 216 0.0 3.5 0.00 0.00 0.00 85 998.9
20260505214203 84 216 0.0 3.5 0.00 0.00 0.00 85 999.0
20260505214108 84 216 0.0 3.5 0.00 0.00 0.00 84 998.9
20260505214003 84 227 0.0 3.5 0.00 0.00 0.00 84 999.0
20260505213903 84 230 0.0 3.5 0.00 0.00 0.00 84 999.0
20260505213803 84 183 0.9 3.5 0.00 0.00 0.00 84 999.1
20260505213703 84 183 0.9 3.5 0.00 0.00 0.00 84 999.1
20260505213603 84 330 0.0 3.5 0.00 0.00 0.00 84 999.0
20260505213502 84 330 0.0 3.5 0.00 0.00 0.00 84 999.1
20260505213403 84 329 0.0 3.5 0.00 0.00 0.00 84 999.1
20260505213304 84 329 0.0 3.5 0.00 0.00 0.00 84 999.2
20260505213204 84 329 0.9 3.5 0.00 0.00 0.00 83 999.2
20260505213102 84 330 0.9 3.5 0.00 0.00 0.00 83 999.2
20260505213004 84 250 0.0 2.6 0.00 0.00 0.00 83 999.1
20260505212904 84 262 0.0 2.6 0.00 0.00 0.00 83 999.2
20260505212802 84 264 0.0 2.6 0.00 0.00 0.00 83 999.2
20260505212703 84 250 0.0 2.6 0.00 0.00 0.00 83 999.2
20260505212604 84 261 0.0 2.6 0.00 0.00 0.00 84 999.2
20260505212436 84 285 0.9 2.6 0.00 0.00 0.00 84 999.3
20260505212334 84 228 0.9 2.6 0.00 0.00 0.00 84 999.3
20260505212234 84 203 0.0 2.6 0.00 0.00 0.00 84 999.3
20260505212136 84 204 0.0 2.6 0.00 0.00 0.00 84 999.3
20260505212036 84 209 0.9 2.6 0.00 0.00 0.00 84 999.3
20260505211936 84 207 0.9 2.6 0.00 0.00 0.00 84 999.3
20260505211835 84 134 0.0 2.6 0.00 0.00 0.00 84 999.3
20260505211738 84 116 0.0 2.6 0.00 0.00 0.00 84 999.3
20260505211636 84 295 0.0 2.6 0.00 0.00 0.00 84 999.4
20260505211536 84 309 0.0 2.6 0.00 0.00 0.00 84 999.4
20260505211434 84 266 0.0 2.6 0.00 0.00 0.00 84 999.3
20260505211336 84 268 0.0 2.6 0.00 0.00 0.00 84 999.5
20260505211234 84 268 0.0 2.6 0.00 0.00 0.00 84 999.4
20260505211136 84 268 0.0 2.6 0.00 0.00 0.00 84 999.5
20260505211035 84 298 0.9 2.6 0.00 0.00 0.00 84 999.5
20260505210937 84 271 0.0 2.6 0.00 0.00 0.00 84 999.4
20260505210834 84 193 0.0 1.7 0.00 0.00 0.00 84 999.5
20260505210734 84 190 0.0 1.7 0.00 0.00 0.00 84 999.4
20260505210636 84 0 0.0 1.7 0.00 0.00 0.00 84 999.5
20260505210535 84 0 0.0 1.7 0.00 0.00 0.00 84 999.4
20260505210435 84 190 0.0 1.7 0.00 0.00 0.00 83 999.5
20260505210336 84 185 0.0 1.7 0.00 0.00 0.00 83 999.5
20260505210234 84 185 0.0 2.6 0.00 0.00 0.00 83 999.5
20260505210136 84 195 0.0 3.5 0.00 0.00 0.00 83 999.5
20260505210035 84 348 0.0 3.5 0.00 0.00 0.00 84 999.5
20260505205934 84 173 0.0 3.5 0.00 0.00 0.00 84 999.5
20260505205834 84 172 0.0 3.5 0.00 0.00 0.00 84 999.4
20260505205736 84 248 0.0 3.5 0.00 0.00 0.00 84 999.5
20260505205635 84 243 0.0 3.5 0.00 0.00 0.00 84 999.5
20260505205535 84 244 0.0 3.5 0.00 0.00 0.00 84 999.4
20260505205434 84 127 0.9 3.5 0.00 0.00 0.00 84 999.6
20260505205333 84 206 0.9 3.5 0.00 0.00 0.00 84 999.5
20260505205234 84 180 0.9 3.5 0.00 0.00 0.00 84 999.5
20260505205134 84 300 0.0 3.5 0.00 0.00 0.00 84 999.5
20260505205036 84 314 0.0 3.5 0.00 0.00 0.00 84 999.6
20260505204934 84 220 0.0 3.5 0.00 0.00 0.00 84 999.5
20260505204833 84 133 0.0 3.5 0.00 0.00 0.00 84 999.6
20260505204736 84 124 0.9 3.5 0.00 0.00 0.00 84 999.6
20260505204646 84 207 0.9 3.5 0.00 0.00 0.00 84 999.6
20260505204533 84 269 0.0 3.5 0.00 0.00 0.00 84 999.6
20260505204434 84 276 0.0 3.5 0.00 0.00 0.00 84 999.6
20260505204334 84 288 0.0 3.5 0.00 0.00 0.00 84 999.6
20260505204234 84 0 0.0 3.5 0.00 0.00 0.00 84 999.6
20260505204140 84 127 0.0 3.5 0.00 0.00 0.00 84 999.6
20260505204034 84 56 0.0 3.5 0.00 0.00 0.00 84 999.5
20260505203934 84 21 0.9 3.5 0.00 0.00 0.00 84 999.6
20260505203835 84 185 0.0 3.5 0.00 0.00 0.00 84 999.7
20260505203733 84 329 0.0 0.9 0.00 0.00 0.00 84 999.7
20260505203635 84 144 0.0 0.9 0.00 0.00 0.00 84 999.7
20260505203534 84 104 0.0 0.9 0.00 0.00 0.00 84 999.7
20260505203435 84 275 0.0 0.9 0.00 0.00 0.00 85 999.7
20260505203335 84 231 0.0 0.9 0.00 0.00 0.00 84 999.8
20260505203234 84 175 0.0 0.9 0.00 0.00 0.00 84 999.7
20260505203134 84 278 0.0 0.9 0.00 0.00 0.00 84 999.8
20260505203034 84 237 0.0 0.9 0.00 0.00 0.00 84 999.8
20260505202935 83 227 0.0 0.9 0.00 0.00 0.00 84 999.9
20260505202833 83 197 0.0 0.9 0.00 0.00 0.00 84 999.8
20260505202735 83 261 0.0 0.0 0.00 0.00 0.00 84 999.9
20260505202634 83 272 0.0 0.0 0.00 0.00 0.00 84 999.9
20260505202534 83 224 0.0 0.9 0.00 0.00 0.00 85 999.9
20260505202433 83 317 0.0 0.9 0.00 0.00 0.00 85 999.9
20260505202334 83 307 0.0 0.9 0.00 0.00 0.00 85 999.9
20260505202233 83 283 0.0 2.6 0.00 0.00 0.00 85 999.9
20260505202133 83 268 0.0 2.6 0.00 0.00 0.00 85 1000.0
20260505202035 83 149 0.0 2.6 0.00 0.00 0.00 85 1000.0
20260505201934 83 251 0.0 2.6 0.00 0.00 0.00 85 1000.0
20260505201833 83 340 0.0 2.6 0.00 0.00 0.00 85 1000.0
20260505201733 83 0 0.0 2.6 0.00 0.00 0.00 85 1000.0
20260505201633 83 169 0.0 2.6 0.00 0.00 0.00 85 999.9
20260505201531 83 165 0.0 2.6 0.00 0.00 0.00 85 1000.0
20260505201433 83 176 0.0 2.6 0.00 0.00 0.00 86 1000.1
20260505201332 83 176 0.0 2.6 0.00 0.00 0.00 86 1000.0
20260505201232 83 220 0.0 2.6 0.00 0.00 0.00 86 1000.0
20260505201133 83 161 0.0 2.6 0.00 0.00 0.00 86 1000.1
20260505201033 83 147 0.0 2.6 0.00 0.00 0.00 86 1000.1
20260505200931 83 131 0.0 2.6 0.00 0.00 0.00 86 1000.0
20260505200832 83 94 0.0 2.6 0.00 0.00 0.00 86 1000.0
20260505200728 83 235 0.0 2.6 0.00 0.00 0.00 86 1000.1
20260505200626 83 235 0.0 2.6 0.00 0.00 0.00 86 1000.2
20260505200521 83 276 0.0 2.6 0.00 0.00 0.00 86 1000.2
20260505200420 83 244 0.0 0.0 0.00 0.00 0.00 86 1000.2
20260505200312 83 196 0.0 0.0 0.00 0.00 0.00 86 1000.2
20260505200203 83 121 0.0 0.0 0.00 0.00 0.00 86 1000.3
20260505200103 83 164 0.0 0.0 0.00 0.00 0.00 86 1000.3
20260505200003 83 76 0.0 0.0 0.00 0.00 0.00 86 1000.3
20260505195902 83 168 0.0 0.0 0.00 0.00 0.00 86 1000.3
20260505195805 83 178 0.0 0.0 0.00 0.00 0.00 86 1000.4
20260505195702 83 176 0.0 0.0 0.00 0.00 0.00 86 1000.4
20260505195603 83 171 0.0 3.5 0.00 0.00 0.00 86 1000.4
20260505195504 83 171 0.0 4.3 0.00 0.00 0.00 86 1000.4
20260505195403 83 171 0.0 4.3 0.00 0.00 0.00 86 1000.5
20260505195304 83 169 0.0 4.3 0.00 0.00 0.00 86 1000.5
20260505195202 83 207 0.0 4.3 0.00 0.00 0.00 86 1000.4
20260505195103 83 207 0.0 4.3 0.00 0.00 0.00 85 1000.5
20260505195003 83 207 0.0 4.3 0.00 0.00 0.00 85 1000.5
20260505194902 83 207 0.0 4.3 0.00 0.00 0.00 85 1000.5
20260505194804 83 206 0.0 4.3 0.00 0.00 0.00 85 1000.6
20260505194704 83 186 0.9 4.3 0.00 0.00 0.00 86 1000.6
20260505194602 83 216 0.0 4.3 0.00 0.00 0.00 86 1000.6
20260505194504 83 227 0.0 0.0 0.00 0.00 0.00 86 1000.5
20260505194403 83 234 0.0 0.0 0.00 0.00 0.00 86 1000.6
20260505194303 83 195 0.0 0.0 0.00 0.00 0.00 86 1000.6
20260505194203 83 196 0.0 0.0 0.00 0.00 0.00 86 1000.6
20260505194102 83 171 0.0 0.0 0.00 0.00 0.00 86 1000.7
20260505194002 83 278 0.0 0.0 0.00 0.00 0.00 86 1000.7
20260505193904 83 278 0.0 0.9 0.00 0.00 0.00 86 1000.7
20260505193805 83 197 0.0 0.9 0.00 0.00 0.00 86 1000.7
20260505193705 83 185 0.0 0.9 0.00 0.00 0.00 86 1000.7
20260505193603 82 110 0.0 0.9 0.00 0.00 0.00 86 1000.7
20260505193503 82 212 0.0 3.5 0.00 0.00 0.00 86 1000.7
20260505193402 82 212 0.0 3.5 0.00 0.00 0.00 86 1000.6
20260505193304 82 206 0.0 4.3 0.00 0.00 0.00 86 1000.6
20260505193204 82 199 0.0 4.3 0.00 0.00 0.00 86 1000.7
20260505193102 82 173 0.0 4.3 0.00 0.00 0.00 86 1000.7
20260505193003 82 252 0.0 4.3 0.00 0.00 0.00 86 1000.7
20260505192904 82 125 0.0 4.3 0.00 0.00 0.00 86 1000.7
20260505192803 82 147 0.0 4.3 0.00 0.00 0.00 87 1000.7
20260505192705 82 182 0.0 4.3 0.00 0.00 0.00 87 1000.7
20260505192604 82 178 0.0 4.3 0.00 0.00 0.00 87 1000.8
20260505192503 82 168 0.9 4.3 0.00 0.00 0.00 87 1000.7
20260505192403 82 144 0.9 4.3 0.00 0.00 0.00 87 1000.7
20260505192259 82 183 1.7 3.5 0.00 0.00 0.00 87 1000.7
20260505192200 82 157 1.7 3.5 0.00 0.00 0.00 87 1000.8
20260505192055 82 152 0.9 2.6 0.00 0.00 0.00 87 1000.7
20260505191950 82 25 0.0 0.9 0.00 0.00 0.00 87 1000.6
20260505191835 82 313 0.0 0.9 0.00 0.00 0.00 87 1000.6
20260505191732 82 309 0.0 0.9 0.00 0.00 0.00 87 1000.7
20260505191630 82 99 0.0 1.7 0.00 0.00 0.00 87 1000.6
20260505191533 82 182 0.0 1.7 0.00 0.00 0.00 87 1000.6
20260505191432 82 182 0.0 1.7 0.00 0.00 0.00 87 1000.6
20260505191331 82 200 0.0 1.7 0.00 0.00 0.00 87 1000.7
20260505191231 82 200 0.0 1.7 0.00 0.00 0.00 87 1000.7
20260505191131 82 210 0.0 1.7 0.00 0.00 0.00 87 1000.7
20260505191032 82 210 0.0 1.7 0.00 0.00 0.00 87 1000.6
20260505190933 82 210 0.0 1.7 0.00 0.00 0.00 87 1000.6
20260505190832 82 134 0.0 1.7 0.00 0.00 0.00 87 1000.7
20260505190731 82 133 0.0 1.7 0.00 0.00 0.00 87 1000.8
20260505190632 82 192 0.0 0.9 0.00 0.00 0.00 87 1000.7
20260505190533 82 300 0.0 0.9 0.00 0.00 0.00 87 1000.7
20260505190432 82 300 0.0 0.9 0.00 0.00 0.00 87 1000.7
20260505190330 82 300 0.0 0.9 0.00 0.00 0.00 87 1000.7
20260505190225 82 300 0.0 0.9 0.00 0.00 0.00 87 1000.8
20260505190118 82 300 0.0 0.9 0.00 0.00 0.00 87 1000.8
20260505190014 82 295 0.0 0.9 0.00 0.00 0.00 87 1000.7
20260505185906 82 37 0.0 0.9 0.00 0.00 0.00 88 1000.8
20260505185804 82 261 0.0 0.9 0.00 0.00 0.00 88 1000.8
20260505185705 81 235 0.0 0.9 0.00 0.00 0.00 88 1000.8
20260505185604 81 144 0.0 2.6 0.00 0.00 0.00 88 1000.8
20260505185505 81 278 0.0 2.6 0.00 0.00 0.00 88 1000.9
20260505185402 81 271 0.0 2.6 0.00 0.00 0.00 88 1000.9
20260505185304 81 269 0.0 2.6 0.00 0.00 0.00 88 1000.8
20260505185204 81 125 0.0 2.6 0.00 0.00 0.00 88 1000.8
20260505185102 81 210 0.0 2.6 0.00 0.00 0.00 88 1000.8
20260505185003 81 210 0.0 2.6 0.00 0.00 0.00 88 1000.8
20260505184902 81 234 0.0 2.6 0.00 0.00 0.00 88 1000.8
20260505184802 81 162 0.0 2.6 0.00 0.00 0.00 88 1000.8
20260505184702 81 219 0.0 2.6 0.00 0.00 0.00 88 1000.7
20260505184603 81 138 0.0 2.6 0.00 0.00 0.00 89 1000.8
20260505184504 81 193 0.0 2.6 0.00 0.00 0.00 89 1000.8
20260505184403 81 175 0.0 2.6 0.00 0.00 0.00 89 1000.8
20260505184304 81 71 0.0 2.6 0.00 0.00 0.00 89 1000.8
20260505184203 81 266 0.0 2.6 0.00 0.00 0.00 89 1000.8
20260505184104 81 265 0.0 2.6 0.00 0.00 0.00 89 1000.9
20260505184004 81 281 0.0 2.6 0.00 0.00 0.00 89 1000.8
20260505183902 81 200 0.0 1.7 0.00 0.00 0.00 89 1000.9
20260505183802 81 254 0.0 2.6 0.00 0.00 0.00 89 1000.9
20260505183703 81 72 0.0 2.6 0.00 0.00 0.00 89 1000.9
20260505183602 80 199 0.0 2.6 0.00 0.00 0.00 89 1000.8
20260505183504 80 240 0.0 2.6 0.00 0.00 0.00 89 1000.9
20260505183403 80 254 0.0 2.6 0.00 0.00 0.00 89 1001.0
20260505183302 80 212 0.0 2.6 0.00 0.00 0.00 89 1001.0
20260505183203 80 248 0.0 2.6 0.00 0.00 0.00 89 1000.9
20260505183107 80 255 0.0 2.6 0.00 0.00 0.00 90 1000.9
20260505183002 80 241 0.0 2.6 0.00 0.00 0.00 90 1001.0
20260505182903 80 180 0.0 2.6 0.00 0.00 0.00 90 1001.0
20260505182803 80 197 0.0 1.7 0.00 0.00 0.00 90 1001.0
20260505182702 80 169 0.0 1.7 0.00 0.00 0.00 90 1000.9
20260505182606 80 269 0.0 0.9 0.00 0.00 0.00 90 1000.9
20260505182503 80 245 0.0 0.9 0.00 0.00 0.00 90 1000.9
20260505182402 80 248 0.0 0.9 0.00 0.00 0.00 90 1000.9
20260505182305 80 93 0.0 0.0 0.00 0.00 0.00 90 1001.1
20260505182203 80 223 0.0 0.0 0.00 0.00 0.00 90 1001.0
20260505182104 80 324 0.0 0.0 0.00 0.00 0.00 90 1001.1
20260505182004 80 151 0.0 0.0 0.00 0.00 0.00 90 1001.1
20260505181903 80 281 0.0 0.0 0.00 0.00 0.00 90 1001.0
20260505181802 80 151 0.0 0.0 0.00 0.00 0.00 90 1001.0
20260505181703 80 0 0.0 0.0 0.00 0.00 0.00 90 1001.0
20260505181604 80 0 0.0 0.9 0.00 0.00 0.00 90 1001.0
20260505181504 80 0 0.0 0.9 0.00 0.00 0.00 90 1001.1
20260505181402 80 0 0.0 0.9 0.00 0.00 0.00 90 1001.1
20260505181303 80 0 0.0 0.9 0.00 0.00 0.00 90 1001.1
20260505181204 80 320 0.0 0.9 0.00 0.00 0.00 90 1001.1
20260505181102 80 210 0.0 0.9 0.00 0.00 0.00 90 1001.2
20260505181005 80 207 0.0 0.9 0.00 0.00 0.00 90 1001.2
20260505180904 80 213 0.0 0.9 0.00 0.00 0.00 90 1001.2
20260505180803 80 212 0.0 0.9 0.00 0.00 0.00 90 1001.2
20260505180704 80 285 0.0 0.9 0.00 0.00 0.00 90 1001.2
20260505180602 80 226 0.0 0.9 0.00 0.00 0.00 90 1001.3
20260505180503 80 140 0.0 0.9 0.00 0.00 0.00 90 1001.3
20260505180405 80 196 0.0 0.9 0.00 0.00 0.00 90 1001.2
20260505180304 80 197 0.0 0.9 0.00 0.00 0.00 90 1001.2
20260505180203 80 63 0.0 0.9 0.00 0.00 0.00 90 1001.2
20260505180103 80 63 0.0 0.9 0.00 0.00 0.00 90 1001.3
20260505180003 80 62 0.0 0.9 0.00 0.00 0.00 91 1001.3
20260505175904 80 58 0.0 0.9 0.00 0.00 0.00 91 1001.3
20260505175803 80 207 0.0 0.9 0.00 0.00 0.00 91 1001.4
20260505175704 80 200 0.0 0.9 0.00 0.00 0.00 91 1001.4
20260505175602 80 343 0.0 0.9 0.00 0.00 0.00 91 1001.3
20260505175505 80 223 0.0 0.9 0.00 0.00 0.00 91 1001.2
20260505175404 80 221 0.0 0.9 0.00 0.00 0.00 91 1001.4
20260505175305 80 219 0.0 0.9 0.00 0.00 0.00 91 1001.3
20260505175204 80 219 0.0 0.9 0.00 0.00 0.00 91 1001.3
20260505175103 80 209 0.0 0.9 0.00 0.00 0.00 91 1001.3
20260505175003 80 25 0.0 0.0 0.00 0.00 0.00 91 1001.3
20260505174902 80 254 0.0 0.0 0.00 0.00 0.00 92 1001.3
20260505174803 80 195 0.0 0.0 0.00 0.00 0.00 92 1001.2
20260505174702 80 196 0.0 0.0 0.00 0.00 0.00 92 1001.1
20260505174602 79 118 0.0 0.0 0.00 0.00 0.00 92 1001.3
20260505174504 79 200 0.0 0.0 0.00 0.00 0.00 92 1001.3
20260505174402 79 168 0.0 0.0 0.00 0.00 0.00 92 1001.3
20260505174304 79 20 0.0 0.0 0.00 0.00 0.00 92 1001.3
20260505174203 79 20 0.0 0.0 0.00 0.00 0.00 93 1001.4
20260505174103 79 157 0.0 0.0 0.00 0.00 0.00 93 1001.3
20260505174004 79 298 0.0 0.9 0.00 0.00 0.00 93 1001.3
20260505173902 79 295 0.0 0.9 0.00 0.00 0.00 93 1001.4
20260505173804 79 63 0.0 0.9 0.00 0.00 0.00 93 1001.4
20260505173705 79 0 0.0 0.9 0.00 0.00 0.00 93 1001.4
20260505173603 79 336 0.0 0.9 0.00 0.00 0.00 93 1001.4
20260505173503 79 337 0.0 0.9 0.00 0.00 0.00 93 1001.3
20260505173403 79 337 0.0 0.9 0.00 0.00 0.00 93 1001.3
20260505173302 79 351 0.0 0.9 0.00 0.00 0.00 93 1001.4
20260505173203 79 230 0.0 0.9 0.00 0.00 0.00 93 1001.4
20260505173103 79 162 0.0 0.9 0.00 0.00 0.00 93 1001.3
20260505172954 79 235 0.0 0.9 0.00 0.00 0.00 93 1001.4
20260505172851 78 235 0.0 0.9 0.00 0.00 0.00 93 1001.3
20260505172746 78 197 0.0 0.9 0.00 0.00 0.00 93 1001.3
20260505172646 78 305 0.0 0.9 0.00 0.00 0.00 93 1001.4
20260505172542 78 305 0.0 0.9 0.00 0.00 0.00 93 1001.4
20260505172441 78 305 0.0 0.9 0.00 0.00 0.00 93 1001.4
20260505172331 78 161 0.0 0.9 0.00 0.00 0.00 93 1001.4
20260505172233 78 226 0.0 0.9 0.00 0.00 0.00 94 1001.4
20260505172131 78 144 0.0 0.9 0.00 0.00 0.00 94 1001.3
20260505172030 78 155 0.0 0.9 0.00 0.00 0.00 94 1001.4
20260505171932 78 179 0.0 5.2 0.00 0.00 0.00 94 1001.4
20260505171832 78 212 0.0 5.2 0.00 0.00 0.00 94 1001.4
20260505171731 78 204 0.0 5.2 0.00 0.00 0.00 94 1001.5
20260505171631 78 204 0.0 5.2 0.00 0.00 0.00 94 1001.4
20260505171533 78 200 0.0 5.2 0.00 0.00 0.00 94 1001.4
20260505171431 78 165 0.0 5.2 0.00 0.00 0.00 94 1001.4
20260505171332 78 166 0.0 5.2 0.00 0.00 0.00 94 1001.5
20260505171230 78 165 0.0 5.2 0.00 0.00 0.00 94 1001.4
20260505171132 78 165 1.7 5.2 0.00 0.00 0.00 94 1001.4
20260505171031 78 159 1.7 5.2 0.00 0.00 0.00 95 1001.4
20260505170931 78 237 0.0 2.6 0.00 0.00 0.00 95 1001.5
20260505170831 78 234 0.0 2.6 0.00 0.00 0.00 95 1001.5
20260505170731 78 235 0.0 2.6 0.00 0.00 0.00 95 1001.4
20260505170633 78 235 0.0 2.6 0.00 0.00 0.00 95 1001.5
20260505170532 78 234 0.0 2.6 0.00 0.00 0.00 95 1001.4
20260505170431 78 71 0.9 2.6 0.00 0.00 0.00 95 1001.5
20260505170333 78 233 0.9 2.6 0.00 0.00 0.00 96 1001.4
20260505170231 78 282 0.0 0.0 0.00 0.00 0.00 96 1001.5
20260505170130 78 220 0.0 0.0 0.00 0.00 0.00 96 1001.5
20260505170030 78 350 0.0 0.9 0.00 0.00 0.00 96 1001.5
20260505165928 78 307 0.0 0.9 0.00 0.00 0.00 96 1001.6
20260505165831 78 293 0.0 0.9 0.00 0.00 0.00 96 1001.5
20260505165730 78 172 0.0 0.9 0.00 0.00 0.00 96 1001.6
20260505165630 78 172 0.0 0.9 0.00 0.00 0.00 96 1001.6
20260505165528 77 172 0.0 0.9 0.00 0.00 0.00 96 1001.5
20260505165430 77 172 0.0 0.9 0.00 0.00 0.00 96 1001.6
20260505165331 77 172 0.0 0.9 0.00 0.00 0.00 96 1001.5
20260505165228 77 172 0.0 0.9 0.00 0.00 0.00 96 1001.5
20260505165128 77 168 0.9 2.6 0.00 0.00 0.00 96 1001.6
20260505165028 77 204 0.0 2.6 0.00 0.00 0.00 96 1001.6
20260505164929 77 178 0.0 2.6 0.00 0.00 0.00 96 1001.6
20260505164828 77 145 0.0 2.6 0.00 0.00 0.00 96 1001.6
20260505164729 77 145 0.0 2.6 0.00 0.00 0.00 96 1001.6
20260505164629 77 134 0.0 2.6 0.00 0.00 0.00 96 1001.6
20260505164530 77 32 0.0 2.6 0.00 0.00 0.00 96 1001.6
20260505164430 77 141 0.0 2.6 0.00 0.00 0.00 97 1001.6
20260505164330 77 38 0.0 2.6 0.00 0.00 0.00 97 1001.6
20260505164229 77 303 0.0 2.6 0.00 0.00 0.00 97 1001.6
20260505164128 77 175 0.0 2.6 0.00 0.00 0.00 97 1001.6
20260505164029 77 175 0.0 2.6 0.00 0.00 0.00 97 1001.6
20260505163929 77 189 0.0 2.6 0.00 0.00 0.00 97 1001.6
20260505163828 77 199 0.0 2.6 0.00 0.00 0.00 97 1001.6
20260505163728 77 199 0.0 2.6 0.00 0.00 0.00 97 1001.6
20260505163628 77 199 0.0 2.6 0.00 0.00 0.00 97 1001.6
20260505163530 76 192 0.0 2.6 0.00 0.00 0.00 97 1001.7
20260505163429 76 255 0.0 2.6 0.00 0.00 0.00 97 1001.6
20260505163331 76 255 0.0 2.6 0.00 0.00 0.00 97 1001.6
20260505163229 76 288 0.0 1.7 0.00 0.00 0.00 97 1001.6
20260505163128 76 288 0.0 1.7 0.00 0.00 0.00 96 1001.7
20260505163029 76 288 0.0 1.7 0.00 0.00 0.00 96 1001.6
20260505162930 76 288 0.0 1.7 0.00 0.00 0.00 96 1001.7
20260505162828 76 289 0.0 2.6 0.00 0.00 0.00 96 1001.6
20260505162728 76 288 0.0 2.6 0.00 0.00 0.00 96 1001.6
20260505162628 76 288 0.0 2.6 0.00 0.00 0.00 96 1001.7
20260505162528 76 288 0.0 2.6 0.00 0.00 0.00 96 1001.7
20260505162428 76 186 0.0 2.6 0.00 0.00 0.00 96 1001.6
20260505162329 76 185 0.0 2.6 0.00 0.00 0.00 96 1001.7
20260505162228 76 128 0.0 2.6 0.00 0.00 0.00 96 1001.8
20260505162127 76 183 0.0 2.6 0.00 0.00 0.00 96 1001.7
20260505162028 76 182 0.9 2.6 0.00 0.00 0.00 97 1001.7
20260505161928 76 265 0.0 2.6 0.00 0.00 0.00 97 1001.6
20260505161828 76 161 0.0 1.7 0.00 0.00 0.00 97 1001.7
20260505161728 76 159 0.0 1.7 0.00 0.00 0.00 97 1001.6
20260505161630 76 178 0.0 0.0 0.00 0.00 0.00 97 1001.7
20260505161528 76 166 0.0 0.0 0.00 0.00 0.00 97 1001.6
20260505161429 76 179 0.0 0.9 0.00 0.00 0.00 97 1001.6
20260505161327 76 178 0.0 1.7 0.00 0.00 0.00 97 1001.6
20260505161228 76 178 0.0 1.7 0.00 0.00 0.00 97 1001.6
20260505161139 76 178 0.0 1.7 0.00 0.00 0.00 97 1001.6
20260505161029 76 56 0.0 1.7 0.00 0.00 0.00 97 1001.5
20260505160928 76 42 0.0 1.7 0.00 0.00 0.00 97 1001.6
20260505160829 76 42 0.0 1.7 0.00 0.00 0.00 97 1001.5
20260505160728 76 333 0.0 1.7 0.00 0.00 0.00 97 1001.6
20260505160633 76 345 0.0 3.5 0.00 0.00 0.00 97 1001.5
20260505160527 76 345 0.9 3.5 0.00 0.00 0.00 97 1001.5
20260505160427 76 250 0.9 3.5 0.00 0.00 0.00 97 1001.5
20260505160329 76 343 0.0 3.5 0.00 0.00 0.00 97 1001.5
20260505160229 76 343 0.0 3.5 0.00 0.00 0.00 97 1001.5
20260505160130 76 343 0.0 3.5 0.00 0.00 0.00 97 1001.5
20260505153303 75 165 0.0 2.6 0.00 0.00 0.00 98 1001.3
20260505153202 75 165 0.0 2.6 0.00 0.00 0.00 98 1001.3
20260505153106 75 165 0.0 2.6 0.00 0.00 0.00 98 1001.4
20260505153003 75 171 0.0 1.7 0.00 0.00 0.00 98 1001.4
20260505152903 75 171 0.0 1.7 0.00 0.00 0.00 98 1001.3
20260505152802 75 171 0.0 1.7 0.00 0.00 0.00 98 1001.2
20260505152704 75 169 0.0 1.7 0.00 0.00 0.00 98 1001.2
20260505152604 75 169 0.0 1.7 0.00 0.00 0.00 98 1001.2
20260505152504 75 171 0.0 1.7 0.00 0.00 0.00 98 1001.2
20260505152403 75 178 0.9 1.7 0.00 0.00 0.00 98 1001.2
20260505152305 75 220 0.0 1.7 0.00 0.00 0.00 98 1001.3
20260505152202 75 250 0.0 1.7 0.00 0.00 0.00 98 1001.3
20260505152107 75 248 0.9 4.3 0.00 0.00 0.00 98 1001.3
20260505152004 75 250 0.0 4.3 0.00 0.00 0.00 98 1001.3
20260505151904 75 250 0.0 4.3 0.00 0.00 0.00 98 1001.3
20260505151802 75 247 0.0 4.3 0.00 0.00 0.00 98 1001.3
20260505151702 75 240 0.0 4.3 0.00 0.00 0.00 98 1001.3
20260505151606 75 245 0.0 4.3 0.00 0.00 0.00 98 1001.3
20260505151504 75 193 0.0 4.3 0.00 0.00 0.00 98 1001.4
20260505151402 75 123 0.0 4.3 0.00 0.00 0.00 98 1001.4
20260505151302 75 123 0.9 4.3 0.00 0.00 0.00 98 1001.4
20260505151203 75 127 0.9 4.3 0.00 0.00 0.00 98 1001.3
20260505151106 74 252 0.0 3.5 0.00 0.00 0.00 98 1001.4
20260505151004 74 251 0.9 3.5 0.00 0.00 0.00 98 1001.4
20260505150902 74 128 0.9 3.5 0.00 0.00 0.00 98 1001.3
20260505150803 74 237 0.0 1.7 0.00 0.00 0.00 98 1001.4
20260505150703 74 237 0.0 1.7 0.00 0.00 0.00 98 1001.4
20260505150610 74 237 0.0 1.7 0.00 0.00 0.00 98 1001.4
20260505150504 74 235 0.0 2.6 0.00 0.00 0.00 98 1001.3
20260505150404 74 235 0.0 2.6 0.00 0.00 0.00 98 1001.3
20260505150303 74 237 0.0 2.6 0.00 0.00 0.00 98 1001.3
20260505150203 74 237 0.0 2.6 0.00 0.00 0.00 98 1001.2
20260505140603 73 244 0.0 3.5 0.00 0.00 0.00 99 1001.2
20260505140502 73 244 0.0 3.5 0.00 0.00 0.00 99 1001.2
20260505140403 73 206 0.0 3.5 0.00 0.00 0.00 99 1001.2
20260505140304 73 212 0.9 3.5 0.00 0.00 0.00 99 1001.2
20260505140202 73 295 0.9 3.5 0.00 0.00 0.00 99 1001.0
20260505130225 71 162 0.0 2.6 0.00 0.00 0.00 99 1001.1
20260505130125 71 172 0.0 1.7 0.00 0.00 0.00 99 1001.1
20260505125024 71 180 0.0 1.7 0.00 0.00 0.00 99 1001.0
20260505124924 71 180 0.0 1.7 0.00 0.00 0.00 99 1001.0
20260505124816 71 185 0.0 1.7 0.00 0.00 0.00 99 1001.0
20260505124711 71 185 0.0 1.7 0.00 0.00 0.00 99 1000.9
20260505124604 71 185 0.0 1.7 0.00 0.00 0.00 99 1001.0
20260505124504 71 185 0.0 1.7 0.00 0.00 0.00 99 1001.0
20260505124403 71 288 0.0 1.7 0.00 0.00 0.00 99 1001.0
20260505124302 71 100 0.0 1.7 0.00 0.00 0.00 99 1000.9
20260505124203 71 123 0.0 1.7 0.00 0.00 0.00 99 1001.0
20260505124106 71 123 0.0 1.7 0.00 0.00 0.00 99 1001.0
20260505124004 71 117 0.0 2.6 0.00 0.00 0.00 99 1000.8
20260505123902 71 117 0.0 2.6 0.00 0.00 0.00 99 1000.7
20260505123803 71 116 0.0 2.6 0.00 0.00 0.00 99 1000.6
20260505123704 71 214 0.0 2.6 0.00 0.00 0.00 99 1000.5
20260505123602 71 209 0.0 2.6 0.00 0.00 0.00 99 1000.6
20260505123506 71 199 0.0 2.6 0.00 0.00 0.00 99 1000.5
20260505123403 71 168 0.0 2.6 0.00 0.00 0.00 99 1000.4
20260505123302 71 166 0.0 2.6 0.00 0.00 0.00 99 1000.4
20260505123206 71 166 0.9 2.6 0.00 0.00 0.00 99 1000.4
20260505123102 71 319 0.0 2.6 0.00 0.00 0.00 99 1000.4
20260505123005 71 233 0.9 1.7 0.00 0.00 0.00 99 1000.4
20260505122904 71 233 0.0 1.7 0.00 0.00 0.00 99 1000.4
20260505122802 71 238 0.0 1.7 0.00 0.00 0.00 99 1000.5
20260505122702 71 240 0.0 1.7 0.00 0.00 0.00 99 1000.4
20260505122603 71 240 0.0 1.7 0.00 0.00 0.00 99 1000.6
20260505122503 71 240 0.0 1.7 0.00 0.00 0.00 99 1000.6
20260505122403 71 240 0.0 1.7 0.00 0.00 0.00 99 1000.5
20260505122305 70 275 0.0 1.7 0.00 0.00 0.00 99 1000.5
20260505122204 71 275 0.0 1.7 0.00 0.00 0.00 99 1000.6
20260505122102 70 276 0.0 1.7 0.00 0.00 0.00 99 1000.6
20260505122005 70 278 0.0 1.7 0.00 0.00 0.00 99 1000.6
20260505121904 70 278 0.0 1.7 0.00 0.00 0.00 99 1000.6
20260505121802 70 217 0.0 1.7 0.00 0.00 0.00 99 1000.6
20260505121703 70 219 0.0 1.7 0.00 0.00 0.00 99 1000.6
20260505121602 70 219 0.0 1.7 0.00 0.00 0.00 99 1000.6
20260505121502 70 219 0.0 1.7 0.00 0.00 0.00 99 1000.6
20260505121402 70 219 0.0 1.7 0.00 0.00 0.00 99 1000.5
20260505121301 70 219 0.0 1.7 0.00 0.00 0.00 99 1000.6
20260505121200 70 186 0.0 1.7 0.00 0.00 0.00 99 1000.6
20260505121055 70 190 0.0 1.7 0.00 0.00 0.00 99 1000.6
20260505120952 70 209 0.0 1.7 0.00 0.00 0.00 99 1000.7
20260505120849 70 209 0.0 1.7 0.00 0.00 0.00 99 1000.7
20260505120744 70 209 0.0 1.7 0.00 0.00 0.00 99 1000.7
20260505120636 70 209 0.0 1.7 0.00 0.00 0.00 99 1000.7
20260505120535 70 209 0.0 1.7 0.00 0.00 0.00 99 1000.7
20260505120432 70 209 0.0 1.7 0.00 0.00 0.00 99 1000.6
20260505120332 70 209 0.0 1.7 0.00 0.00 0.00 99 1000.5
20260505120231 70 207 0.0 1.7 0.00 0.00 0.00 99 1000.5
20260505120131 70 169 0.9 1.7 0.00 0.00 0.00 99 1000.5
20260505120032 70 137 0.9 1.7 0.00 0.00 0.00 99 1000.4
20260505115932 70 0 0.0 1.7 0.00 0.00 0.00 99 1000.4
20260505115832 70 302 0.0 1.7 0.00 0.00 0.00 99 1000.5
20260505115732 70 302 0.0 1.7 0.00 0.00 0.00 99 1000.5
20260505115632 70 302 0.0 3.5 0.00 0.00 0.00 99 1000.5
20260505115532 70 302 0.0 3.5 0.00 0.00 0.00 99 1000.5
20260505115431 70 302 0.0 3.5 0.00 0.00 0.00 99 1000.5
20260505115333 70 302 0.0 3.5 0.00 0.00 0.00 99 1000.5
20260505115232 70 302 0.0 3.5 0.00 0.00 0.00 99 1000.4
20260505115132 70 302 0.0 3.5 0.00 0.00 0.00 99 1000.4
20260505115028 70 305 0.0 3.5 0.00 0.00 0.00 99 1000.3
20260505114924 70 189 0.0 3.5 0.00 0.00 0.00 99 1000.3
20260505114823 70 189 0.0 3.5 0.00 0.00 0.00 99 1000.2
20260505114721 70 190 0.0 3.5 0.00 0.00 0.00 99 1000.3
20260505114622 70 147 0.0 3.5 0.00 0.00 0.00 99 1000.3
20260505114522 70 147 0.0 3.5 0.00 0.00 0.00 99 1000.3
20260505114423 70 147 0.9 3.5 0.00 0.00 0.00 98 1000.4
20260505114323 70 147 0.9 3.5 0.00 0.00 0.00 98 1000.3
20260505114224 70 168 0.0 0.0 0.00 0.00 0.00 98 1000.3
20260505114125 70 168 0.0 0.9 0.00 0.00 0.00 98 1000.4
20260505114022 70 168 0.0 0.9 0.00 0.00 0.00 98 1000.4
20260505113921 70 213 0.0 0.9 0.00 0.00 0.00 98 1000.4
20260505113823 70 219 0.0 0.9 0.00 0.00 0.00 98 1000.5
20260505113721 70 219 0.0 0.9 0.00 0.00 0.00 99 1000.3
20260505113623 70 219 0.0 0.9 0.00 0.00 0.00 99 1000.4
20260505113522 70 219 0.0 0.9 0.00 0.00 0.00 99 1000.3
20260505113422 70 219 0.0 0.9 0.00 0.00 0.00 98 1000.3
20260505113322 70 245 0.0 0.9 0.00 0.00 0.00 98 1000.2
20260505113222 70 245 0.0 0.9 0.00 0.00 0.00 98 1000.1
20260505113121 70 244 0.0 0.9 0.00 0.00 0.00 98 1000.2
20260505113022 70 258 0.0 0.9 0.00 0.00 0.00 99 1000.2
20260505112922 70 258 0.0 0.9 0.00 0.00 0.00 99 1000.3
20260505112821 70 258 0.0 0.9 0.00 0.00 0.00 99 1000.3
20260505112724 70 258 0.0 0.9 0.00 0.00 0.00 99 1000.3
20260505112623 70 259 0.0 0.9 0.00 0.00 0.00 98 1000.3
20260505112521 70 265 0.0 0.9 0.00 0.00 0.00 98 1000.3
20260505112422 70 87 0.0 0.0 0.00 0.00 0.00 99 1000.4
20260505112322 70 87 0.0 0.0 0.00 0.00 0.00 99 1000.5
20260505112221 70 148 0.0 0.0 0.00 0.00 0.00 99 1000.5
20260505112123 70 148 0.0 0.0 0.00 0.00 0.00 99 1000.6
20260505112023 70 255 0.0 0.0 0.00 0.00 0.00 99 1000.6
20260505111921 70 255 0.0 0.0 0.00 0.00 0.00 98 1000.6
20260505111822 70 255 0.0 0.0 0.00 0.00 0.00 98 1000.6
20260505111723 70 255 0.0 0.0 0.00 0.00 0.00 98 1000.6
20260505111621 70 255 0.0 0.0 0.00 0.00 0.00 99 1000.6
20260505111523 70 255 0.0 0.0 0.00 0.00 0.00 98 1000.6
20260505111421 70 255 0.0 0.0 0.00 0.00 0.00 98 1000.5
20260505111321 70 255 0.0 0.0 0.00 0.00 0.00 98 1000.5
20260505111222 70 212 0.0 0.0 0.00 0.00 0.00 98 1000.6
20260505111122 70 212 0.0 0.0 0.00 0.00 0.00 98 1000.5
20260505111020 70 212 0.0 0.0 0.00 0.00 0.00 98 1000.5
20260505110921 70 212 0.0 0.0 0.00 0.00 0.00 98 1000.6
20260505110822 70 213 0.0 0.0 0.00 0.00 0.00 98 1000.6
20260505110722 70 213 0.0 0.0 0.00 0.00 0.00 98 1000.6
20260505110621 70 213 0.0 0.0 0.00 0.00 0.00 98 1000.5
20260505110521 70 213 0.0 0.0 0.00 0.00 0.00 98 1000.5
20260505110421 70 213 0.0 0.0 0.00 0.00 0.00 98 1000.4
20260505110325 70 213 0.0 0.0 0.00 0.00 0.00 98 1000.5
20260505110222 70 213 0.0 0.0 0.00 0.00 0.00 98 1000.4
20260505110121 70 213 0.0 0.0 0.00 0.00 0.00 98 1000.4
20260505102221 69 214 0.0 1.7 0.00 0.00 0.00 98 1000.5
20260505102121 69 213 0.0 1.7 0.00 0.00 0.00 98 1000.5
20260505102020 69 172 0.0 1.7 0.00 0.00 0.00 98 1000.6
20260505101920 69 172 0.0 1.7 0.00 0.00 0.00 98 1000.6
20260505101821 69 172 0.0 1.7 0.00 0.00 0.00 98 1000.6
20260505101719 69 171 0.0 1.7 0.00 0.00 0.00 98 1000.6
20260505101619 69 179 0.0 1.7 0.00 0.00 0.00 98 1000.6
20260505101521 69 173 0.0 0.9 0.00 0.00 0.00 98 1000.6
20260505101422 69 173 0.0 0.9 0.00 0.00 0.00 98 1000.6
20260505101320 69 149 0.0 0.9 0.00 0.00 0.00 98 1000.7
20260505101222 69 149 0.0 0.9 0.00 0.00 0.00 98 1000.5
20260505101121 69 149 0.0 0.9 0.00 0.00 0.00 98 1000.6
20260505101019 69 149 0.0 0.9 0.00 0.00 0.00 98 1000.6
20260505100904 69 148 0.0 0.9 0.00 0.00 0.00 98 1000.6
20260505100802 69 151 0.0 0.9 0.00 0.00 0.00 98 1000.5
20260505100703 69 151 0.0 0.9 0.00 0.00 0.00 98 1000.4
20260505100603 69 244 0.0 0.9 0.00 0.00 0.00 97 1000.4
20260505100505 69 224 0.0 0.9 0.00 0.00 0.00 97 1000.5
20260505100403 69 224 0.0 0.9 0.00 0.00 0.00 97 1000.5
20260505100302 69 228 0.0 0.9 0.00 0.00 0.00 97 1000.5
20260505100204 69 216 0.0 0.9 0.00 0.00 0.00 97 1000.4
20260505100110 69 213 0.0 0.9 0.00 0.00 0.00 97 1000.4
20260505100002 69 202 0.0 0.9 0.00 0.00 0.00 97 1000.4
20260505095902 69 202 0.0 0.9 0.00 0.00 0.00 97 1000.3
20260505095803 69 202 0.0 0.9 0.00 0.00 0.00 97 1000.4
20260505095702 69 202 0.0 0.9 0.00 0.00 0.00 97 1000.4
20260505095602 69 202 0.0 0.9 0.00 0.00 0.00 97 1000.4
20260505095504 69 207 0.0 0.9 0.00 0.00 0.00 97 1000.5
20260505095404 69 207 0.0 0.9 0.00 0.00 0.00 97 1000.5
20260505095257 69 206 0.0 0.9 0.00 0.00 0.00 97 1000.4
20260505095157 69 206 0.0 0.9 0.00 0.00 0.00 97 1000.4
20260505095050 69 207 0.0 0.0 0.00 0.00 0.00 97 1000.5
20260505094945 69 207 0.0 0.0 0.00 0.00 0.00 97 1000.5
20260505094841 69 207 0.0 0.0 0.00 0.00 0.00 97 1000.5
20260505094737 69 207 0.0 1.7 0.00 0.00 0.00 97 1000.6
20260505094632 69 207 0.0 1.7 0.00 0.00 0.00 97 1000.6
20260505094532 69 207 0.0 1.7 0.00 0.00 0.00 97 1000.6
20260505094431 69 207 0.0 1.7 0.00 0.00 0.00 97 1000.6
20260505094332 69 207 0.0 1.7 0.00 0.00 0.00 97 1000.7
20260505094232 69 207 0.0 1.7 0.00 0.00 0.00 97 1000.6
20260505094131 69 207 0.0 1.7 0.00 0.00 0.00 97 1000.6
20260505094033 69 230 0.0 1.7 0.00 0.00 0.00 97 1000.6
20260505093927 69 230 0.0 1.7 0.00 0.00 0.00 97 1000.6
20260505093824 69 230 0.0 1.7 0.00 0.00 0.00 97 1000.6
20260505093719 69 202 0.0 0.0 0.00 0.00 0.00 97 1000.6
20260505093619 69 202 0.0 0.0 0.00 0.00 0.00 97 1000.6
20260505093519 69 202 0.0 0.0 0.00 0.00 0.00 97 1000.6
20260505093418 69 265 0.0 0.0 0.00 0.00 0.00 97 1000.6
20260505093318 69 265 0.0 0.0 0.00 0.00 0.00 97 1000.6
20260505093221 69 190 0.0 0.0 0.00 0.00 0.00 97 1000.5
20260505093113 69 190 0.0 0.0 0.00 0.00 0.00 97 1000.6
20260505093012 69 190 0.0 0.0 0.00 0.00 0.00 97 1000.6
20260505092905 69 178 0.0 0.0 0.00 0.00 0.00 97 1000.6
20260505092803 69 176 0.0 0.0 0.00 0.00 0.00 97 1000.6
20260505092704 69 176 0.0 0.0 0.00 0.00 0.00 97 1000.6
20260505092604 69 176 0.0 0.9 0.00 0.00 0.00 97 1000.6
20260505092502 69 176 0.0 0.9 0.00 0.00 0.00 97 1000.6
20260505092404 69 176 0.0 0.9 0.00 0.00 0.00 97 1000.6
20260505092305 69 176 0.0 0.9 0.00 0.00 0.00 97 1000.6
20260505092202 69 178 0.0 0.9 0.00 0.00 0.00 97 1000.6
20260505092103 69 176 0.0 0.9 0.00 0.00 0.00 97 1000.6
20260505092004 69 176 0.0 0.9 0.00 0.00 0.00 97 1000.6
20260505091903 69 176 0.0 0.9 0.00 0.00 0.00 97 1000.7
20260505091804 69 176 0.0 0.9 0.00 0.00 0.00 97 1000.7
20260505091703 69 176 0.0 0.9 0.00 0.00 0.00 96 1000.7
20260505091603 69 176 0.0 0.9 0.00 0.00 0.00 96 1000.8
20260505091504 69 210 0.0 0.9 0.00 0.00 0.00 96 1000.8
20260505091404 69 197 0.0 0.0 0.00 0.00 0.00 96 1000.8
20260505091304 69 197 0.0 0.9 0.00 0.00 0.00 96 1000.8
20260505091203 69 197 0.0 0.9 0.00 0.00 0.00 96 1000.8
20260505091104 69 197 0.0 0.9 0.00 0.00 0.00 96 1000.8
20260505091002 69 196 0.0 0.9 0.00 0.00 0.00 96 1000.9
20260505090903 69 196 0.0 0.9 0.00 0.00 0.00 96 1000.9
20260505090804 69 196 0.0 0.9 0.00 0.00 0.00 96 1001.0
20260505090703 69 196 0.0 0.9 0.00 0.00 0.00 96 1000.9
20260505090603 69 196 0.0 0.9 0.00 0.00 0.00 96 1001.0
20260505090505 69 196 0.0 0.9 0.00 0.00 0.00 96 1000.9
20260505090402 69 196 0.0 0.9 0.00 0.00 0.00 96 1000.9
20260505090304 69 188 0.0 0.9 0.00 0.00 0.00 96 1001.0
20260505090204 69 188 0.0 0.9 0.00 0.00 0.00 96 1000.9
20260505090105 69 188 0.0 0.9 0.00 0.00 0.00 96 1000.9
20260505090002 69 192 0.0 0.9 0.00 0.00 0.00 96 1000.9
20260505085904 69 216 0.0 0.0 0.00 0.00 0.00 96 1000.9
20260505085804 69 216 0.0 0.0 0.00 0.00 0.00 96 1000.9
20260505085658 69 217 0.0 0.0 0.00 0.00 0.00 96 1000.9
20260505085550 69 220 0.0 0.0 0.00 0.00 0.00 96 1000.9
20260505085439 69 220 0.0 0.0 0.00 0.00 0.00 96 1000.9
20260505085330 69 220 0.0 0.0 0.00 0.00 0.00 96 1000.9
20260505085231 69 220 0.0 0.0 0.00 0.00 0.00 96 1001.0
20260505085132 69 219 0.0 0.0 0.00 0.00 0.00 96 1001.0
20260505085034 69 219 0.0 0.0 0.00 0.00 0.00 96 1001.0
20260505084931 69 219 0.0 0.9 0.00 0.00 0.00 96 1000.9
20260505084834 69 219 0.0 0.9 0.00 0.00 0.00 96 1001.0
20260505084732 69 219 0.0 0.9 0.00 0.00 0.00 96 1000.9
20260505084631 69 233 0.0 0.9 0.00 0.00 0.00 96 1000.9
20260505084532 69 233 0.0 0.9 0.00 0.00 0.00 96 1001.0
20260505084432 69 233 0.0 0.9 0.00 0.00 0.00 96 1000.9
20260505084331 69 230 0.0 0.9 0.00 0.00 0.00 96 1000.9
20260505084223 69 230 0.0 0.9 0.00 0.00 0.00 96 1000.9
20260505084119 69 230 0.0 0.9 0.00 0.00 0.00 96 1001.0
20260505084019 69 230 0.0 0.9 0.00 0.00 0.00 96 1000.9
20260505083917 69 275 0.0 0.0 0.00 0.00 0.00 96 1000.9
20260505083817 69 275 0.0 0.0 0.00 0.00 0.00 96 1001.0
20260505083717 69 275 0.0 0.0 0.00 0.00 0.00 96 1001.0
20260505083618 69 275 0.0 0.0 0.00 0.00 0.00 96 1000.9
20260505083517 69 275 0.0 0.0 0.00 0.00 0.00 96 1001.0
20260505083418 69 275 0.0 0.0 0.00 0.00 0.00 96 1001.0
20260505083318 69 275 0.0 0.0 0.00 0.00 0.00 96 1001.1
20260505083217 69 275 0.0 0.0 0.00 0.00 0.00 96 1001.0
20260505083119 69 275 0.0 0.0 0.00 0.00 0.00 96 1000.9
20260505083019 69 275 0.0 0.0 0.00 0.00 0.00 96 1001.0
20260505082918 69 275 0.0 0.0 0.00 0.00 0.00 96 1001.0
20260505082817 69 275 0.0 0.0 0.00 0.00 0.00 96 1001.0
20260505082718 69 275 0.0 0.0 0.00 0.00 0.00 96 1001.0
20260505082617 69 275 0.0 0.0 0.00 0.00 0.00 96 1001.0
20260505082517 69 120 0.0 0.0 0.00 0.00 0.00 96 1001.0
20260505082420 69 120 0.0 0.0 0.00 0.00 0.00 96 1001.0
20260505082320 69 120 0.0 0.0 0.00 0.00 0.00 96 1001.1
20260505082217 69 120 0.0 0.0 0.00 0.00 0.00 96 1001.1
20260505082119 69 120 0.0 0.0 0.00 0.00 0.00 96 1001.1
20260505082019 69 120 0.0 0.0 0.00 0.00 0.00 96 1001.1
20260505081917 69 120 0.0 0.0 0.00 0.00 0.00 96 1001.1
20260505081817 69 120 0.0 0.0 0.00 0.00 0.00 95 1001.2
20260505081717 69 120 0.0 0.0 0.00 0.00 0.00 95 1001.2
20260505081617 69 120 0.0 1.7 0.00 0.00 0.00 95 1001.2
20260505081517 69 120 0.0 1.7 0.00 0.00 0.00 96 1001.2
20260505081419 69 120 0.0 1.7 0.00 0.00 0.00 96 1001.2
20260505081318 69 120 0.0 1.7 0.00 0.00 0.00 95 1001.2
20260505081218 69 120 0.0 1.7 0.00 0.00 0.00 95 1001.2
20260505081117 69 120 0.0 1.7 0.00 0.00 0.00 95 1001.2
20260505081017 69 120 0.0 1.7 0.00 0.00 0.00 95 1001.2
20260505080918 69 120 0.0 1.7 0.00 0.00 0.00 96 1001.1
20260505080817 69 120 0.0 1.7 0.00 0.00 0.00 95 1001.1
20260505080718 69 120 0.0 1.7 0.00 0.00 0.00 95 1001.2
20260505080617 69 235 0.0 0.0 0.00 0.00 0.00 95 1001.2
20260505080525 69 235 0.0 0.0 0.00 0.00 0.00 95 1001.2
20260505080417 69 235 0.0 0.0 0.00 0.00 0.00 95 1001.2
20260505080317 69 235 0.0 0.0 0.00 0.00 0.00 95 1001.2
20260505080219 69 235 0.0 0.0 0.00 0.00 0.00 95 1001.3
20260505080118 69 235 0.0 0.0 0.00 0.00 0.00 95 1001.3
20260505080016 69 235 0.0 0.0 0.00 0.00 0.00 95 1001.3
20260505075917 69 243 0.0 0.0 0.00 0.00 0.00 95 1001.3
20260505075817 69 243 0.0 0.0 0.00 0.00 0.00 95 1001.2
20260505075717 69 243 0.0 0.0 0.00 0.00 0.00 95 1001.3
20260505075619 69 185 0.0 0.0 0.00 0.00 0.00 95 1001.3
20260505075518 69 185 0.0 0.0 0.00 0.00 0.00 95 1001.3
20260505075417 69 185 0.0 0.0 0.00 0.00 0.00 95 1001.3
20260505075318 69 185 0.0 0.0 0.00 0.00 0.00 95 1001.3
20260505075216 69 185 0.0 0.0 0.00 0.00 0.00 95 1001.5
20260505075117 69 185 0.0 0.0 0.00 0.00 0.00 95 1001.5
20260505075016 69 185 0.0 0.0 0.00 0.00 0.00 95 1001.5
20260505074917 69 190 0.0 0.0 0.00 0.00 0.00 95 1001.4
20260505074818 69 190 0.0 0.0 0.00 0.00 0.00 95 1001.4
20260505074716 69 190 0.0 0.0 0.00 0.00 0.00 95 1001.5
20260505074616 69 190 0.0 0.0 0.00 0.00 0.00 95 1001.5
20260505074517 69 190 0.0 0.0 0.00 0.00 0.00 95 1001.5
20260505074416 69 190 0.0 0.0 0.00 0.00 0.00 95 1001.5
20260505074316 69 190 0.0 0.0 0.00 0.00 0.00 95 1001.4
20260505074218 69 190 0.0 0.0 0.00 0.00 0.00 95 1001.5
20260505074116 69 189 0.0 0.0 0.00 0.00 0.00 95 1001.5
20260505074018 69 189 0.0 0.0 0.00 0.00 0.00 95 1001.5
20260505073919 69 189 0.0 0.0 0.00 0.00 0.00 95 1001.4
20260505073813 69 189 0.0 0.0 0.00 0.00 0.00 95 1001.6
20260505073711 69 190 0.0 0.0 0.00 0.00 0.00 95 1001.6
20260505073609 69 190 0.0 0.0 0.00 0.00 0.00 95 1001.6
20260505073507 69 190 0.0 0.9 0.00 0.00 0.00 95 1001.5
20260505073404 69 190 0.0 0.9 0.00 0.00 0.00 95 1001.5
20260505073305 69 189 0.0 0.9 0.00 0.00 0.00 95 1001.6
20260505073202 69 189 0.0 0.9 0.00 0.00 0.00 95 1001.5
20260505073059 69 189 0.0 0.9 0.00 0.00 0.00 95 1001.5
20260505072955 69 189 0.0 0.9 0.00 0.00 0.00 95 1001.5
20260505072853 69 189 0.0 0.9 0.00 0.00 0.00 95 1001.5
20260505072751 69 189 0.0 0.9 0.00 0.00 0.00 95 1001.6
20260505072646 69 189 0.0 0.9 0.00 0.00 0.00 95 1001.6
20260505072538 69 189 0.0 0.9 0.00 0.00 0.00 95 1001.6
20260505072432 69 185 0.0 0.9 0.00 0.00 0.00 95 1001.5
20260505072328 69 185 0.0 0.9 0.00 0.00 0.00 95 1001.6
20260505072227 69 188 0.0 0.9 0.00 0.00 0.00 95 1001.6
20260505072116 69 188 0.0 0.9 0.00 0.00 0.00 95 1001.6
20260505072016 69 188 0.0 0.9 0.00 0.00 0.00 95 1001.5
20260505071917 69 188 0.0 0.9 0.00 0.00 0.00 95 1001.5
20260505071815 69 188 0.0 0.9 0.00 0.00 0.00 95 1001.6
20260505071717 69 185 0.0 0.0 0.00 0.00 0.00 95 1001.6
20260505071615 69 185 0.0 0.0 0.00 0.00 0.00 95 1001.6
20260505071515 69 185 0.0 0.0 0.00 0.00 0.00 95 1001.7
20260505071417 69 185 0.0 0.0 0.00 0.00 0.00 95 1001.7
20260505071315 69 185 0.0 0.0 0.00 0.00 0.00 95 1001.7
20260505071218 69 185 0.0 0.0 0.00 0.00 0.00 95 1001.8
20260505071115 69 185 0.0 0.9 0.00 0.00 0.00 95 1001.7
20260505071016 69 185 0.0 0.9 0.00 0.00 0.00 95 1001.8
20260505070915 69 185 0.0 0.9 0.00 0.00 0.00 95 1001.8
20260505070816 69 183 0.0 0.9 0.00 0.00 0.00 95 1001.8
20260505070716 69 183 0.0 0.9 0.00 0.00 0.00 95 1001.8
20260505070615 69 183 0.0 0.9 0.00 0.00 0.00 95 1001.8
20260505070516 69 183 0.0 0.9 0.00 0.00 0.00 95 1001.8
20260505070415 69 172 0.0 0.9 0.00 0.00 0.00 95 1001.9
20260505070316 69 172 0.0 0.9 0.00 0.00 0.00 95 1001.9
20260505070216 69 172 0.0 0.9 0.00 0.00 0.00 95 1001.9
20260505070115 69 169 0.0 0.9 0.00 0.00 0.00 95 1001.9
20260505070016 69 169 0.0 0.9 0.00 0.00 0.00 95 1001.8
20260505065916 69 169 0.0 0.9 0.00 0.00 0.00 95 1001.9
20260505065816 69 169 0.0 0.9 0.00 0.00 0.00 95 1001.9
20260505065715 69 262 0.0 0.9 0.00 0.00 0.00 95 1001.8
20260505065615 69 261 0.0 0.9 0.00 0.00 0.00 95 1001.9
20260505065515 69 261 0.0 0.9 0.00 0.00 0.00 95 1001.9
20260505065419 69 261 0.0 0.9 0.00 0.00 0.00 95 1001.8
20260505065315 69 261 0.0 0.9 0.00 0.00 0.00 94 1001.8
20260505065215 69 259 0.0 1.7 0.00 0.00 0.00 94 1001.8
20260505065115 69 259 0.0 1.7 0.00 0.00 0.00 94 1001.8
20260505065016 69 259 0.0 1.7 0.00 0.00 0.00 94 1001.8
20260505064914 69 266 0.0 1.7 0.00 0.00 0.00 94 1001.9
20260505064815 69 266 0.0 1.7 0.00 0.00 0.00 94 1001.9
20260505064715 69 271 0.0 1.7 0.00 0.00 0.00 94 1001.9
20260505064615 69 176 0.0 1.7 0.00 0.00 0.00 94 1001.8
20260505064521 69 176 0.0 1.7 0.00 0.00 0.00 94 1002.0
20260505064415 69 176 0.0 1.7 0.00 0.00 0.00 94 1001.9
20260505064315 69 176 0.0 1.7 0.00 0.00 0.00 94 1002.0
20260505064215 69 224 0.0 0.0 0.00 0.00 0.00 94 1002.0
20260505064117 69 221 0.0 0.0 0.00 0.00 0.00 94 1002.0
20260505064015 69 221 0.0 0.0 0.00 0.00 0.00 94 1002.0
20260505063916 69 221 0.0 0.0 0.00 0.00 0.00 94 1001.9
20260505063815 69 223 0.0 0.0 0.00 0.00 0.00 94 1002.0
20260505063714 69 223 0.0 0.0 0.00 0.00 0.00 94 1002.0
20260505063619 69 223 0.0 0.0 0.00 0.00 0.00 94 1002.0
20260505063516 69 221 0.0 0.0 0.00 0.00 0.00 94 1002.0
20260505063416 69 221 0.0 0.0 0.00 0.00 0.00 94 1002.0
20260505063316 69 221 0.0 0.0 0.00 0.00 0.00 94 1001.9
20260505063215 69 221 0.0 0.9 0.00 0.00 0.00 94 1002.0
20260505063114 69 221 0.0 0.9 0.00 0.00 0.00 94 1001.9
20260505063015 69 221 0.0 0.9 0.00 0.00 0.00 94 1001.9
20260505062915 69 221 0.0 0.9 0.00 0.00 0.00 94 1001.9
20260505062815 69 221 0.0 0.9 0.00 0.00 0.00 94 1002.0
20260505062715 69 221 0.0 0.9 0.00 0.00 0.00 94 1001.9
20260505062614 69 221 0.0 1.7 0.00 0.00 0.00 94 1001.9
20260505062514 69 221 0.0 1.7 0.00 0.00 0.00 94 1002.0
20260505062415 69 221 0.0 1.7 0.00 0.00 0.00 94 1002.0
20260505062317 69 221 0.0 1.7 0.00 0.00 0.00 94 1001.9
20260505062214 69 247 0.0 1.7 0.00 0.00 0.00 94 1001.9
20260505062116 69 247 0.0 1.7 0.00 0.00 0.00 94 1001.9
20260505062016 69 247 0.0 1.7 0.00 0.00 0.00 94 1002.0
20260505061915 69 245 0.0 1.7 0.00 0.00 0.00 94 1002.0
20260505061814 69 245 0.0 1.7 0.00 0.00 0.00 94 1002.0
20260505061716 69 245 0.0 1.7 0.00 0.00 0.00 94 1002.1
20260505061615 69 173 0.0 1.7 0.00 0.00 0.00 94 1002.0
20260505061517 69 173 0.0 1.7 0.00 0.00 0.00 94 1002.0
20260505061416 69 173 0.0 1.7 0.00 0.00 0.00 94 1002.0
20260505061314 70 171 0.0 1.7 0.00 0.00 0.00 94 1002.1
20260505061214 69 171 0.0 1.7 0.00 0.00 0.00 94 1002.0
20260505061115 70 171 0.0 1.7 0.00 0.00 0.00 94 1002.0
20260505061018 70 164 0.0 1.7 0.00 0.00 0.00 94 1002.0
20260505060915 69 252 0.0 1.7 0.00 0.00 0.00 94 1002.0
20260505060814 70 278 0.0 0.9 0.00 0.00 0.00 94 1002.0
20260505060715 70 148 0.0 0.9 0.00 0.00 0.00 94 1002.0
20260505060615 70 240 0.0 2.6 0.00 0.00 0.00 93 1002.1
20260505060515 70 238 0.0 2.6 0.00 0.00 0.00 93 1002.0
20260505060415 70 237 0.0 2.6 0.00 0.00 0.00 93 1002.1
20260505060315 70 210 0.0 2.6 0.00 0.00 0.00 93 1002.1
20260505060214 70 210 0.0 2.6 0.00 0.00 0.00 93 1002.1
20260505060114 70 210 0.0 2.6 0.00 0.00 0.00 93 1002.1
20260505060014 70 210 0.0 2.6 0.00 0.00 0.00 93 1002.2
20260505055913 70 210 0.0 2.6 0.00 0.00 0.00 93 1002.1
20260505055815 70 209 0.9 2.6 0.00 0.00 0.00 93 1002.2
20260505055715 70 230 0.9 2.6 0.00 0.00 0.00 93 1002.2
20260505055614 70 203 0.0 0.9 0.00 0.00 0.00 93 1002.3
20260505055515 70 73 0.0 0.0 0.00 0.00 0.00 93 1002.3
20260505055415 70 73 0.0 0.0 0.00 0.00 0.00 93 1002.4
20260505055313 70 73 0.0 0.0 0.00 0.00 0.00 93 1002.4
20260505055218 70 73 0.0 0.0 0.00 0.00 0.00 93 1002.4
20260505055115 70 69 0.0 0.0 0.00 0.00 0.00 93 1002.3
20260505055013 70 69 0.0 0.0 0.00 0.00 0.00 93 1002.3
20260505054911 70 69 0.0 0.0 0.00 0.00 0.00 93 1002.2
20260505054806 70 69 0.0 2.6 0.00 0.00 0.00 93 1002.3
20260505054705 70 69 0.0 2.6 0.00 0.00 0.00 93 1002.3
20260505054603 70 68 0.0 2.6 0.00 0.00 0.00 93 1002.3
20260505054504 70 68 0.0 2.6 0.00 0.00 0.00 93 1002.3
20260505054402 70 68 0.0 2.6 0.00 0.00 0.00 93 1002.3
20260505054304 70 68 0.0 2.6 0.00 0.00 0.00 93 1002.3
20260505054203 70 68 0.0 2.6 0.00 0.00 0.00 93 1002.3
20260505054102 70 51 0.0 2.6 0.00 0.00 0.00 93 1002.3
20260505054005 70 51 0.0 2.6 0.00 0.00 0.00 93 1002.3
20260505053904 70 45 0.0 2.6 0.00 0.00 0.00 93 1002.3
20260505053805 70 54 0.0 1.7 0.00 0.00 0.00 93 1002.2
20260505053702 70 54 0.0 1.7 0.00 0.00 0.00 93 1002.3
20260505053605 70 54 0.0 1.7 0.00 0.00 0.00 93 1002.2
20260505053504 70 354 0.0 0.9 0.00 0.00 0.00 93 1002.3
20260505053403 70 354 0.0 0.9 0.00 0.00 0.00 93 1002.3
20260505053303 70 354 0.0 0.9 0.00 0.00 0.00 93 1002.3
20260505053205 70 345 0.0 0.9 0.00 0.00 0.00 93 1002.3
20260505053101 70 331 0.0 0.9 0.00 0.00 0.00 93 1002.3
20260505053005 70 331 0.0 0.9 0.00 0.00 0.00 93 1002.3
20260505052903 70 330 0.0 0.9 0.00 0.00 0.00 93 1002.3
20260505052803 70 330 0.0 0.9 0.00 0.00 0.00 93 1002.4
20260505052704 70 330 0.0 0.9 0.00 0.00 0.00 93 1002.5
20260505052559 70 197 0.0 1.7 0.00 0.00 0.00 93 1002.5
20260505052457 70 197 0.0 1.7 0.00 0.00 0.00 93 1002.5
20260505052350 70 197 0.0 1.7 0.00 0.00 0.00 93 1002.5
20260505052245 70 197 0.0 2.6 0.00 0.00 0.00 92 1002.5
20260505052141 70 258 0.0 2.6 0.00 0.00 0.00 92 1002.5
20260505052036 70 258 0.0 2.6 0.00 0.00 0.00 92 1002.5
20260505051931 70 258 0.0 2.6 0.00 0.00 0.00 92 1002.5
20260505051831 70 261 0.0 2.6 0.00 0.00 0.00 92 1002.5
20260505051731 70 261 0.0 2.6 0.00 0.00 0.00 92 1002.5
20260505051636 70 261 0.0 2.6 0.00 0.00 0.00 92 1002.5
20260505051522 70 203 0.0 2.6 0.00 0.00 0.00 92 1002.4
20260505051417 70 203 0.0 2.6 0.00 0.00 0.00 92 1002.5
20260505051316 70 203 0.0 2.6 0.00 0.00 0.00 92 1002.4
20260505051215 70 192 0.0 1.7 0.00 0.00 0.00 92 1002.5
20260505051115 70 192 0.0 1.7 0.00 0.00 0.00 92 1002.4
20260505051012 70 190 0.0 1.7 0.00 0.00 0.00 92 1002.5
20260505050913 70 190 0.9 1.7 0.00 0.00 0.00 92 1002.5
20260505050813 70 278 0.0 1.7 0.00 0.00 0.00 92 1002.5
20260505050713 70 290 0.0 0.9 0.00 0.00 0.00 92 1002.5
20260505050612 71 176 0.0 0.9 0.00 0.00 0.00 92 1002.6
20260505050514 70 176 0.0 0.9 0.00 0.00 0.00 92 1002.6
20260505050413 70 176 0.0 0.9 0.00 0.00 0.00 92 1002.6
20260505050314 71 179 0.0 0.9 0.00 0.00 0.00 92 1002.6
20260505050213 71 179 0.0 0.9 0.00 0.00 0.00 92 1002.6
20260505050113 71 179 0.0 0.9 0.00 0.00 0.00 92 1002.6
20260505041703 71 214 0.0 0.9 0.00 0.00 0.00 90 1002.6
20260505041604 71 214 0.0 1.7 0.00 0.00 0.00 90 1002.6
20260505041503 71 216 0.0 1.7 0.00 0.00 0.00 90 1002.6
20260505041403 71 216 0.0 1.7 0.00 0.00 0.00 90 1002.7
20260505041302 71 216 0.0 1.7 0.00 0.00 0.00 90 1002.6
20260505041204 72 214 0.0 1.7 0.00 0.00 0.00 90 1002.6
20260505041103 72 142 0.0 1.7 0.00 0.00 0.00 90 1002.6
20260505041004 72 142 0.0 1.7 0.00 0.00 0.00 90 1002.7
20260505040902 72 121 0.0 1.7 0.00 0.00 0.00 90 1002.6
20260505040802 72 121 0.9 1.7 0.00 0.00 0.00 90 1002.6
20260505040703 72 123 0.0 1.7 0.00 0.00 0.00 90 1002.7
20260505040604 72 240 0.0 2.6 0.00 0.00 0.00 90 1002.6
20260505040502 72 240 0.0 2.6 0.00 0.00 0.00 90 1002.6
20260505040401 72 234 0.0 2.6 0.00 0.00 0.00 90 1002.6
20260505040303 72 234 0.0 2.6 0.00 0.00 0.00 90 1002.6
20260505040203 72 234 0.0 2.6 0.00 0.00 0.00 90 1002.5
20260505040003 72 283 0.0 2.6 0.00 0.00 0.00 90 1002.5
20260505035904 72 234 0.0 2.6 0.00 0.00 0.00 90 1002.5
20260505035803 72 234 0.9 2.6 0.00 0.00 0.00 90 1002.4
20260505035703 72 224 0.0 2.6 0.00 0.00 0.00 90 1002.5
20260505035602 72 247 0.0 1.7 0.00 0.00 0.00 90 1002.5
20260505035505 72 217 0.0 1.7 0.00 0.00 0.00 90 1002.5
20260505035403 72 217 0.0 1.7 0.00 0.00 0.00 90 1002.6
20260505035304 72 200 0.0 1.7 0.00 0.00 0.00 90 1002.6
20260505035202 72 0 0.0 0.9 0.00 0.00 0.00 90 1002.7
20260505035104 72 155 0.0 1.7 0.00 0.00 0.00 90 1002.8
20260505035003 72 279 0.0 1.7 0.00 0.00 0.00 90 1002.9
20260505034904 72 281 0.0 1.7 0.00 0.00 0.00 90 1002.9
20260505034802 72 262 0.0 1.7 0.00 0.00 0.00 90 1003.0
20260505034703 72 262 0.0 1.7 0.00 0.00 0.00 90 1002.9
20260505034603 72 271 0.0 1.7 0.00 0.00 0.00 90 1002.9
20260505034505 72 271 0.0 1.7 0.00 0.00 0.00 89 1002.9
20260505034404 72 271 0.0 1.7 0.00 0.00 0.00 89 1002.9
20260505034302 72 272 0.0 1.7 0.00 0.00 0.00 89 1002.7
20260505034202 72 272 0.0 1.7 0.00 0.00 0.00 89 1002.7
20260505034103 72 179 0.0 0.9 0.00 0.00 0.00 89 1002.7
20260505034005 72 252 0.0 0.9 0.00 0.00 0.00 89 1002.7
20260505033904 72 210 0.0 0.9 0.00 0.00 0.00 89 1002.6
20260505033802 72 210 0.0 0.9 0.00 0.00 0.00 89 1002.7
20260505033702 72 210 0.0 1.7 0.00 0.00 0.00 89 1002.7
20260505033603 72 135 0.0 1.7 0.00 0.00 0.00 89 1002.7
20260505033503 72 135 0.0 1.7 0.00 0.00 0.00 89 1002.8
20260505033403 72 135 0.0 1.7 0.00 0.00 0.00 89 1002.7
20260505033304 72 140 0.0 1.7 0.00 0.00 0.00 89 1002.7
20260505033204 73 141 0.0 1.7 0.00 0.00 0.00 89 1002.7
20260505033104 73 252 0.0 1.7 0.00 0.00 0.00 89 1002.7
20260505033005 73 252 0.0 1.7 0.00 0.00 0.00 89 1002.7
20260505032904 73 252 0.9 1.7 0.00 0.00 0.00 89 1002.8
20260505032803 73 252 0.9 1.7 0.00 0.00 0.00 89 1002.7
20260505032703 73 282 0.0 1.7 0.00 0.00 0.00 89 1002.9
20260505032604 73 288 0.0 1.7 0.00 0.00 0.00 89 1002.9
20260505032502 73 186 0.0 1.7 0.00 0.00 0.00 89 1002.9
20260505032404 73 192 0.0 1.7 0.00 0.00 0.00 89 1003.0
20260505032304 73 197 0.0 1.7 0.00 0.00 0.00 89 1003.1
20260505032204 73 197 0.0 1.7 0.00 0.00 0.00 89 1003.0
20260505032106 73 197 0.0 1.7 0.00 0.00 0.00 89 1003.0
20260505032002 73 195 0.0 1.7 0.00 0.00 0.00 89 1003.0
20260505031902 73 221 0.0 1.7 0.00 0.00 0.00 89 1003.0
20260505031803 73 178 0.9 1.7 0.00 0.00 0.00 89 1003.0
20260505031703 73 290 0.0 1.7 0.00 0.00 0.00 89 1003.0
20260505031601 73 238 0.0 1.7 0.00 0.00 0.00 88 1002.9
20260505031503 73 238 0.0 1.7 0.00 0.00 0.00 88 1002.9
20260505031402 73 240 0.0 1.7 0.00 0.00 0.00 88 1002.9
20260505031302 73 240 0.9 1.7 0.00 0.00 0.00 88 1003.1
20260505031201 73 271 0.0 1.7 0.00 0.00 0.00 88 1002.9
20260505031056 73 159 0.0 1.7 0.00 0.00 0.00 88 1002.9
20260505030949 73 235 0.0 1.7 0.00 0.00 0.00 88 1002.8
20260505030846 73 235 0.0 1.7 0.00 0.00 0.00 88 1002.8
20260505030739 73 235 0.0 1.7 0.00 0.00 0.00 88 1002.8
20260505030638 73 235 0.9 1.7 0.00 0.00 0.00 88 1002.8
20260505030534 73 235 0.9 1.7 0.00 0.00 0.00 88 1002.9
20260505030434 73 333 0.0 0.9 0.00 0.00 0.00 88 1002.8
20260505030331 73 157 0.0 0.9 0.00 0.00 0.00 88 1002.8
20260505030233 73 109 0.0 1.7 0.00 0.00 0.00 88 1002.9
20260505030132 73 109 0.0 1.7 0.00 0.00 0.00 88 1002.8
20260505030028 73 109 0.0 1.7 0.00 0.00 0.00 88 1002.8
20260505025928 73 109 0.0 1.7 0.00 0.00 0.00 88 1002.8
20260505025818 73 109 0.0 1.7 0.00 0.00 0.00 88 1002.7
20260505025713 73 107 0.0 1.7 0.00 0.00 0.00 88 1002.7
20260505025611 73 109 0.0 1.7 0.00 0.00 0.00 88 1002.7
20260505025509 73 106 0.0 1.7 0.00 0.00 0.00 88 1002.7
20260505025420 73 106 0.0 4.3 0.00 0.00 0.00 88 1002.8
20260505025311 73 354 0.0 4.3 0.00 0.00 0.00 88 1002.7
20260505025210 74 90 0.0 4.3 0.00 0.00 0.00 88 1002.8
20260505025111 74 94 0.0 4.3 0.00 0.00 0.00 88 1002.8
20260505025012 74 94 0.9 4.3 0.00 0.00 0.00 88 1002.7
20260505024910 74 340 0.9 4.3 0.00 0.00 0.00 88 1002.7
20260505024809 74 179 0.0 4.3 0.00 0.00 0.00 88 1002.6
20260505024711 74 124 0.0 4.3 0.00 0.00 0.00 88 1002.6
20260505024609 74 124 0.9 4.3 0.00 0.00 0.00 88 1002.5
20260505024511 74 116 0.9 4.3 0.00 0.00 0.00 87 1002.6
20260505024410 74 214 0.9 2.6 0.00 0.00 0.00 87 1002.6
20260505024309 74 219 0.9 2.6 0.00 0.00 0.00 87 1002.6
20260505024210 74 125 0.0 2.6 0.00 0.00 0.00 87 1002.6
20260505024111 74 125 0.0 2.6 0.00 0.00 0.00 87 1002.6
20260505024009 74 243 0.0 2.6 0.00 0.00 0.00 87 1002.5
20260505023909 74 243 0.0 2.6 0.00 0.00 0.00 87 1002.5
20260505023811 74 243 0.0 2.6 0.00 0.00 0.00 87 1002.5
20260505023709 74 243 0.0 2.6 0.00 0.00 0.00 87 1002.5
20260505023610 74 243 0.0 2.6 0.00 0.00 0.00 87 1002.5
20260505023509 74 243 0.0 2.6 0.00 0.00 0.00 87 1002.5
20260505023411 74 241 0.9 2.6 0.00 0.00 0.00 87 1002.5
20260505023311 74 244 0.9 2.6 0.00 0.00 0.00 87 1002.5
20260505023209 74 238 0.0 2.6 0.00 0.00 0.00 87 1002.6
20260505023110 74 234 0.0 3.5 0.00 0.00 0.00 87 1002.5
20260505023010 74 234 0.0 3.5 0.00 0.00 0.00 88 1002.6
20260505022909 74 234 0.0 3.5 0.00 0.00 0.00 88 1002.5
20260505022810 74 234 0.0 3.5 0.00 0.00 0.00 87 1002.5
20260505022709 74 234 0.0 3.5 0.00 0.00 0.00 87 1002.5
20260505022609 74 269 0.0 3.5 0.00 0.00 0.00 87 1002.6
20260505022509 74 269 0.0 3.5 0.00 0.00 0.00 87 1002.5
20260505022410 74 283 0.0 3.5 0.00 0.00 0.00 87 1002.5
20260505022309 74 283 0.9 3.5 0.00 0.00 0.00 87 1002.5
20260505022209 74 173 0.9 3.5 0.00 0.00 0.00 87 1002.6
20260505022109 74 180 0.0 0.0 0.00 0.00 0.00 87 1002.6
20260505022009 74 180 0.0 0.0 0.00 0.00 0.00 87 1002.6
20260505021909 74 180 0.0 0.0 0.00 0.00 0.00 87 1002.5
20260505021810 74 180 0.0 0.0 0.00 0.00 0.00 87 1002.5
20260505021710 74 180 0.0 0.0 0.00 0.00 0.00 87 1002.5
20260505021610 74 180 0.0 0.0 0.00 0.00 0.00 87 1002.4
20260505021506 74 179 0.0 0.0 0.00 0.00 0.00 87 1002.3
20260505021403 74 179 0.0 0.0 0.00 0.00 0.00 87 1002.4
20260505021303 74 241 0.0 0.0 0.00 0.00 0.00 87 1002.4
20260505021204 74 243 0.0 0.0 0.00 0.00 0.00 87 1002.4
20260505021103 74 243 0.0 0.0 0.00 0.00 0.00 87 1002.4
20260505021005 74 243 0.0 0.0 0.00 0.00 0.00 87 1002.4
20260505020904 74 243 0.0 0.0 0.00 0.00 0.00 87 1002.4
20260505020803 74 243 0.0 0.9 0.00 0.00 0.00 87 1002.3
20260505020703 74 238 0.0 0.9 0.00 0.00 0.00 87 1002.4
20260505020605 74 238 0.0 1.7 0.00 0.00 0.00 87 1002.4
20260505020502 74 238 0.0 1.7 0.00 0.00 0.00 87 1002.4
20260505020403 74 233 0.0 1.7 0.00 0.00 0.00 87 1002.4
20260505020303 74 233 0.0 1.7 0.00 0.00 0.00 87 1002.4
20260505020202 74 295 0.0 1.7 0.00 0.00 0.00 87 1002.3
20260505020003 74 204 0.0 1.7 0.00 0.00 0.00 87 1002.4
20260505015904 74 204 0.0 1.7 0.00 0.00 0.00 87 1002.3
20260505015803 74 312 0.0 1.7 0.00 0.00 0.00 86 1002.4
20260505015702 74 266 0.0 1.7 0.00 0.00 0.00 86 1002.4
20260505015602 74 337 0.0 1.7 0.00 0.00 0.00 86 1002.3
20260505015504 74 269 0.0 1.7 0.00 0.00 0.00 86 1002.3
20260505015404 74 196 0.0 1.7 0.00 0.00 0.00 86 1002.4
20260505015304 74 195 0.0 1.7 0.00 0.00 0.00 86 1002.3
20260505015205 74 195 0.0 1.7 0.00 0.00 0.00 86 1002.4
20260505015102 74 213 0.0 1.7 0.00 0.00 0.00 86 1002.4
20260505015003 74 288 0.0 1.7 0.00 0.00 0.00 86 1002.4
20260505014903 74 289 0.0 1.7 0.00 0.00 0.00 86 1002.3
20260505014802 74 157 0.0 1.7 0.00 0.00 0.00 86 1002.3
20260505014654 74 155 0.0 1.7 0.00 0.00 0.00 86 1002.4
20260505014552 74 217 0.0 1.7 0.00 0.00 0.00 86 1002.3
20260505014451 75 224 0.0 0.9 0.00 0.00 0.00 86 1002.3
20260505014343 75 149 0.0 0.9 0.00 0.00 0.00 86 1002.2
20260505014239 75 148 0.0 0.9 0.00 0.00 0.00 86 1002.3
20260505014131 75 131 0.0 1.7 0.00 0.00 0.00 86 1002.3
20260505014032 75 131 0.0 1.7 0.00 0.00 0.00 86 1002.3
20260505013932 75 128 0.0 1.7 0.00 0.00 0.00 85 1002.3
20260505013832 75 128 0.0 2.6 0.00 0.00 0.00 85 1002.3
20260505013732 75 127 0.0 2.6 0.00 0.00 0.00 85 1002.3
20260505013633 75 127 0.0 2.6 0.00 0.00 0.00 85 1002.3
20260505013531 75 133 0.0 2.6 0.00 0.00 0.00 85 1002.4
20260505013432 75 133 0.0 2.6 0.00 0.00 0.00 85 1002.3
20260505013315 75 133 0.9 2.6 0.00 0.00 0.00 85 1002.3
20260505013215 75 351 0.0 2.6 0.00 0.00 0.00 85 1002.3
20260505013110 75 231 0.0 2.6 0.00 0.00 0.00 84 1002.2
20260505013009 75 186 0.9 2.6 0.00 0.00 0.00 84 1002.3
20260505012909 75 186 0.9 2.6 0.00 0.00 0.00 84 1002.2
20260505012808 75 193 0.0 0.0 0.00 0.00 0.00 84 1002.3
20260505012709 75 185 0.0 0.0 0.00 0.00 0.00 84 1002.2
20260505012608 75 226 0.0 0.0 0.00 0.00 0.00 84 1002.2
20260505012508 75 226 0.0 0.0 0.00 0.00 0.00 84 1002.2
20260505012408 75 288 0.0 0.0 0.00 0.00 0.00 84 1002.2
20260505012309 75 288 0.0 0.0 0.00 0.00 0.00 84 1002.2
20260505012209 75 288 0.0 0.0 0.00 0.00 0.00 84 1002.2
20260505012109 75 288 0.0 0.0 0.00 0.00 0.00 84 1002.2
20260505012009 75 288 0.0 0.0 0.00 0.00 0.00 84 1002.2
20260505011908 75 265 0.0 0.0 0.00 0.00 0.00 84 1002.1
20260505011807 75 265 0.0 0.0 0.00 0.00 0.00 84 1002.2
20260505011707 75 265 0.0 0.0 0.00 0.00 0.00 84 1002.1
20260505011610 75 265 0.0 0.0 0.00 0.00 0.00 84 1002.1
20260505011509 76 265 0.0 0.0 0.00 0.00 0.00 83 1002.1
20260505011409 76 262 0.0 0.0 0.00 0.00 0.00 83 1002.1
20260505011309 76 262 0.0 0.0 0.00 0.00 0.00 83 1002.1
20260505011209 76 244 0.0 0.0 0.00 0.00 0.00 83 1002.1
20260505011107 76 244 0.0 0.0 0.00 0.00 0.00 83 1002.1
20260505011007 76 248 0.0 0.0 0.00 0.00 0.00 83 1002.0
20260505010908 76 203 0.0 0.0 0.00 0.00 0.00 83 1002.1
20260505010808 76 203 0.0 0.0 0.00 0.00 0.00 83 1002.0
20260505010708 76 203 0.0 0.0 0.00 0.00 0.00 83 1002.0
20260505010610 76 203 0.0 0.0 0.00 0.00 0.00 83 1002.0
20260505010508 76 203 0.0 0.0 0.00 0.00 0.00 83 1002.0
20260505010409 76 203 0.0 0.0 0.00 0.00 0.00 83 1002.1
20260505010308 76 203 0.0 0.0 0.00 0.00 0.00 83 1002.1
20260505010208 76 203 0.0 0.0 0.00 0.00 0.00 83 1002.0
20260505010109 76 203 0.0 0.0 0.00 0.00 0.00 83 1002.2
20260505010009 76 203 0.0 0.0 0.00 0.00 0.00 83 1002.2
20260505005908 76 203 0.0 0.0 0.00 0.00 0.00 82 1002.2
20260505005808 76 203 0.0 0.0 0.00 0.00 0.00 82 1002.2
20260505005708 76 203 0.0 0.0 0.00 0.00 0.00 82 1002.3
20260505005608 76 257 0.0 0.0 0.00 0.00 0.00 82 1002.3
20260505005508 76 257 0.0 0.0 0.00 0.00 0.00 82 1002.2
20260505005410 76 243 0.0 0.0 0.00 0.00 0.00 82 1002.1
20260505005309 76 231 0.0 0.0 0.00 0.00 0.00 82 1002.2
20260505005207 76 231 0.0 0.0 0.00 0.00 0.00 82 1002.2
20260505005108 76 231 0.0 0.0 0.00 0.00 0.00 82 1002.1
20260505005013 76 231 0.0 0.0 0.00 0.00 0.00 82 1002.2
20260505004906 77 231 0.0 0.0 0.00 0.00 0.00 82 1002.2
20260505004804 77 219 0.0 0.0 0.00 0.00 0.00 82 1002.1
20260505004703 77 219 0.0 0.0 0.00 0.00 0.00 82 1002.1
20260505004603 77 250 0.0 0.0 0.00 0.00 0.00 82 1002.0
20260505004502 77 155 0.0 0.0 0.00 0.00 0.00 82 1002.0
20260505004404 77 155 0.0 0.0 0.00 0.00 0.00 82 1002.0
20260505004304 77 155 0.0 0.0 0.00 0.00 0.00 82 1002.0
20260505004203 77 155 0.0 0.0 0.00 0.00 0.00 82 1002.0
20260505004103 77 219 0.0 0.0 0.00 0.00 0.00 81 1002.1
20260505004003 77 219 0.0 0.0 0.00 0.00 0.00 81 1002.1
20260505003902 77 219 0.0 0.0 0.00 0.00 0.00 81 1002.1
20260505003804 77 202 0.0 0.0 0.00 0.00 0.00 81 1002.0
20260505003702 77 200 0.0 0.0 0.00 0.00 0.00 81 1002.1
20260505003602 77 188 0.0 0.0 0.00 0.00 0.00 81 1002.0
20260505003504 77 188 0.0 0.0 0.00 0.00 0.00 81 1002.1
20260505003402 77 188 0.0 0.0 0.00 0.00 0.00 81 1002.1
20260505003304 77 162 0.0 0.0 0.00 0.00 0.00 81 1002.1
20260505003205 77 161 0.0 0.0 0.00 0.00 0.00 81 1002.1
20260505003104 77 162 0.0 0.0 0.00 0.00 0.00 81 1002.1
20260505003003 77 162 0.0 0.0 0.00 0.00 0.00 81 1002.1
20260505002903 77 148 0.0 0.0 0.00 0.00 0.00 81 1002.1
20260505002803 77 148 0.0 0.0 0.00 0.00 0.00 81 1002.1
20260505002702 77 147 0.0 0.0 0.00 0.00 0.00 81 1002.0
20260505002602 77 237 0.0 0.0 0.00 0.00 0.00 81 1002.1
20260505002504 77 298 0.0 0.0 0.00 0.00 0.00 81 1002.0
20260505002402 77 296 0.0 0.0 0.00 0.00 0.00 81 1002.1
20260505002300 77 223 0.0 0.0 0.00 0.00 0.00 81 1002.1
20260505002158 78 224 0.0 0.0 0.00 0.00 0.00 81 1002.0
20260505002053 78 216 0.0 0.0 0.00 0.00 0.00 81 1002.0
20260505001947 78 217 0.0 2.6 0.00 0.00 0.00 81 1002.0
20260505001839 78 217 0.0 2.6 0.00 0.00 0.00 81 1002.0
20260505001732 78 14 0.0 2.6 0.00 0.00 0.00 81 1002.0
20260505001633 78 14 0.0 2.6 0.00 0.00 0.00 81 1002.1
20260505001531 78 310 0.0 2.6 0.00 0.00 0.00 81 1002.0
20260505001434 78 310 0.0 2.6 0.00 0.00 0.00 81 1002.1
20260505001332 78 310 0.0 2.6 0.00 0.00 0.00 81 1002.0
20260505001231 78 307 0.0 2.6 0.00 0.00 0.00 81 1002.0
20260505001131 78 307 0.0 2.6 0.00 0.00 0.00 81 1002.0
20260505001031 78 128 0.0 2.6 0.00 0.00 0.00 81 1002.0
20260505000931 78 114 0.0 0.9 0.00 0.00 0.00 81 1002.0
20260505000832 78 162 0.0 0.9 0.00 0.00 0.00 80 1002.0
20260505000732 78 162 0.0 0.9 0.00 0.00 0.00 81 1002.0
20260505000632 78 259 0.0 0.9 0.00 0.00 0.00 80 1002.1
20260505000532 78 259 0.0 0.9 0.00 0.00 0.00 80 1002.1
20260505000432 78 259 0.0 0.9 0.00 0.00 0.00 80 1002.1
20260505000325 78 169 0.0 1.7 0.00 0.00 0.00 81 1002.2
20260505000222 78 250 0.0 1.7 0.00 0.00 0.00 80 1002.2
20260505000119 78 221 0.0 1.7 0.00 0.00 0.00 80 1002.3
20260505000007 78 221 0.0 1.7 0.00 0.00 0.00 80 1002.2
20260504235906 78 221 0.0 1.7 0.00 0.00 0.00 81 1002.2
20260504235806 78 221 0.0 1.7 0.00 0.00 0.00 81 1002.2
20260504235707 78 221 0.0 3.5 0.00 0.00 0.00 80 1002.2
20260504235606 78 221 0.0 4.3 0.00 0.00 0.00 80 1002.2
20260504235505 78 326 0.0 4.3 0.00 0.00 0.00 80 1002.1
20260504235405 78 89 0.0 4.3 0.00 0.00 0.00 80 1002.2
20260504235306 78 245 0.0 4.3 0.00 0.00 0.00 80 1002.2
20260504235206 78 202 0.0 4.3 0.00 0.00 0.00 80 1002.2
20260504235106 78 344 0.0 4.3 0.00 0.00 0.00 80 1002.3
20260504235007 78 179 0.0 4.3 0.00 0.00 0.00 80 1002.3
20260504234905 79 255 0.0 4.3 0.00 0.00 0.00 80 1002.3
20260504234812 79 252 0.9 4.3 0.00 0.00 0.00 80 1002.3
20260504234707 79 195 0.0 4.3 0.00 0.00 0.00 80 1002.2
20260504234605 79 265 0.0 0.9 0.00 0.00 0.00 80 1002.3
20260504234505 79 265 0.0 3.5 0.00 0.00 0.00 80 1002.3
20260504234405 79 265 0.0 3.5 0.00 0.00 0.00 80 1002.2
20260504234305 79 265 0.0 3.5 0.00 0.00 0.00 80 1002.2
20260504234206 79 265 0.0 3.5 0.00 0.00 0.00 80 1002.2
20260504234106 79 292 0.0 3.5 0.00 0.00 0.00 80 1002.2
20260504234007 79 292 0.0 3.5 0.00 0.00 0.00 80 1002.2
20260504233905 79 292 0.0 3.5 0.00 0.00 0.00 80 1002.2
20260504233808 79 292 0.0 3.5 0.00 0.00 0.00 80 1002.2
20260504233704 79 293 1.7 3.5 0.00 0.00 0.00 80 1002.2
20260504233605 79 293 0.9 3.5 0.00 0.00 0.00 80 1002.1
20260504233451 79 188 0.0 3.5 0.00 0.00 0.00 80 1002.1
20260504233338 79 186 0.0 3.5 0.00 0.00 0.00 80 1002.1
20260504233234 79 186 0.0 3.5 0.00 0.00 0.00 80 1002.2
20260504233132 79 186 0.9 3.5 0.00 0.00 0.00 80 1002.1
20260504233031 79 128 0.9 3.5 0.00 0.00 0.00 80 1002.2
20260504232932 79 316 0.0 0.9 0.00 0.00 0.00 80 1002.2
20260504232832 79 285 0.0 1.7 0.00 0.00 0.00 80 1002.3
20260504232731 79 285 0.0 1.7 0.00 0.00 0.00 80 1002.2
20260504232631 79 224 0.0 1.7 0.00 0.00 0.00 80 1002.3
20260504232532 79 234 0.0 2.6 0.00 0.00 0.00 80 1002.3
20260504232432 79 234 0.0 2.6 0.00 0.00 0.00 80 1002.3
20260504232332 79 234 0.0 2.6 0.00 0.00 0.00 80 1002.3
20260504232231 79 278 0.0 2.6 0.00 0.00 0.00 80 1002.4
20260504232133 79 158 0.0 2.6 0.00 0.00 0.00 80 1002.4
20260504232030 79 221 0.0 2.6 0.00 0.00 0.00 80 1002.4
20260504231931 79 220 0.0 2.6 0.00 0.00 0.00 79 1002.4
20260504231830 79 300 0.0 2.6 0.00 0.00 0.00 79 1002.4
20260504231725 79 310 0.0 2.6 0.00 0.00 0.00 79 1002.4
20260504231624 80 279 0.9 2.6 0.00 0.00 0.00 79 1002.3
20260504231519 80 327 0.9 2.6 0.00 0.00 0.00 79 1002.3
20260504231417 80 142 0.0 2.6 0.00 0.00 0.00 79 1002.4
20260504231313 80 264 0.0 2.6 0.00 0.00 0.00 79 1002.3
20260504231205 80 264 0.9 2.6 0.00 0.00 0.00 79 1002.4
20260504231105 80 152 0.9 2.6 0.00 0.00 0.00 79 1002.4
20260504231004 80 151 1.7 2.6 0.00 0.00 0.00 79 1002.4
20260504230906 80 275 0.9 2.6 0.00 0.00 0.00 79 1002.4
20260504230804 80 230 0.0 2.6 0.00 0.00 0.00 79 1002.4
20260504230705 80 230 0.0 2.6 0.00 0.00 0.00 79 1002.4
20260504230607 80 228 0.0 2.6 0.00 0.00 0.00 79 1002.5
20260504230506 80 228 0.9 2.6 0.00 0.00 0.00 79 1002.5
20260504230404 80 200 0.9 2.6 0.00 0.00 0.00 79 1002.6
20260504230305 80 152 0.9 2.6 0.00 0.00 0.00 79 1002.6
20260504230204 80 49 0.9 2.6 0.00 0.00 0.00 79 1002.6
20260504230105 80 333 0.9 3.5 0.00 0.00 0.00 79 1002.6
20260504230006 80 48 0.9 3.5 0.00 0.00 0.00 78 1002.6
20260504225906 80 25 0.9 3.5 0.00 0.00 0.00 78 1002.6
20260504225804 80 11 0.0 3.5 0.00 0.00 0.00 78 1002.6
20260504225706 80 206 0.0 3.5 0.00 0.00 0.00 78 1002.6
20260504225604 80 206 0.0 3.5 0.00 0.00 0.00 78 1002.6
20260504225507 80 186 0.9 3.5 0.00 0.00 0.00 78 1002.6
20260504225406 80 234 1.7 3.5 0.00 0.00 0.00 78 1002.7
20260504225305 80 248 2.6 3.5 0.00 0.00 0.00 78 1002.8
20260504225205 80 148 1.7 3.5 0.00 0.00 0.00 78 1002.7
20260504225105 80 182 0.9 2.6 0.00 0.00 0.00 78 1002.8
20260504225005 80 186 0.9 3.5 0.00 0.00 0.00 78 1002.7
20260504224905 80 155 0.9 3.5 0.00 0.00 0.00 78 1002.8
20260504224804 80 248 0.9 3.5 0.00 0.00 0.00 78 1002.7
20260504224704 80 295 0.9 3.5 0.00 0.00 0.00 78 1002.7